GFSFLT1_sfc_30mbdewp_000.txt.gz
Dewpoint
27 28 26 26 25 23 25 26 28 28 27 28 29 30 31 30 29 31 33 33 32 30 32 35 32 30 29 31 31 33 38 46
27 28 27 26 26 24 24 25 27 26 26 25 25 25 28 29 28 29 32 28 29 29 27 28 29 30 32 30 27 26 28 35
27 28 29 28 26 25 23 23 25 25 23 24 24 24 24 24 27 31 31 31 30 27 27 26 29 26 27 29 29 26 23 28
26 27 28 29 29 27 26 23 23 24 24 24 24 25 26 25 25 26 30 33 33 33 31 30 29 30 27 28 28 28 24 23
25 26 27 29 30 30 28 24 23 23 26 22 24 21 19 20 24 25 28 31 33 34 34 34 35 33 30 28 25 27 27 25
25 26 26 28 30 31 30 25 24 23 26 28 26 25 23 24 26 28 29 30 32 32 33 35 36 35 33 33 33 29 28 27
26 26 26 27 29 31 31 28 25 25 27 28 28 26 26 25 25 25 24 25 25 27 29 30 31 32 32 32 33 33 32 30
27 26 25 26 27 29 28 27 25 25 27 28 29 29 29 26 25 22 24 22 22 22 23 24 23 24 25 26 27 28 29 28
27 26 26 26 27 27 27 24 25 25 27 28 29 27 23 22 22 21 20 21 21 22 23 22 22 23 23 23 23 23 24 28
28 27 26 27 27 27 28 26 24 24 27 28 25 25 23 20 22 22 20 21 19 17 21 22 23 24 25 25 25 25 26 28
30 30 29 29 29 27 28 28 24 25 25 25 24 23 21 20 21 21 21 21 20 20 21 22 22 23 24 24 24 24 24 27
31 30 30 30 29 27 27 26 23 23 23 24 23 20 20 21 21 21 20 21 21 21 21 22 22 22 23 23 24 24 24 25
30 32 31 29 26 24 24 24 22 23 23 24 22 21 22 21 20 21 21 21 22 22 22 21 20 20 20 21 22 22 23 24
31 33 30 25 24 23 22 23 21 22 22 21 21 22 21 21 21 21 21 21 21 20 18 17 17 18 19 20 21 23 23 24
33 35 29 23 22 22 20 21 22 22 21 19 20 22 22 22 21 21 21 21 18 16 16 16 17 18 19 21 21 22 23 24
35 32 27 22 21 20 19 20 23 23 21 20 19 23 23 21 20 20 20 17 15 15 15 15 17 19 20 20 21 21 22 23
33 30 23 19 18 18 23 23 27 24 21 19 21 23 21 19 19 18 15 12 12 13 14 15 18 19 20 22 22 22 23 24
38 27 20 17 18 26 27 29 26 23 20 20 21 20 19 18 17 13 11 11 12 13 15 18 20 20 21 21 21 23 25 25
36 26 19 21 28 28 30 24 21 20 19 20 19 19 17 16 13 10 10 11 12 15 18 20 20 20 21 21 22 24 26 26

GFSFLT1_sfc_30mbdewp_003.txt.gz
Dewpoint
25 28 29 29 29 28 28 28 28 29 29 31 31 31 32 33 32 32 35 33 31 30 31 34 33 30 31 33 31 29 30 32
25 28 30 30 29 29 27 28 28 28 26 26 27 29 30 30 30 31 32 29 31 31 29 29 31 29 31 33 32 30 28 28
26 28 30 31 30 29 27 27 27 28 26 26 26 27 26 28 29 31 33 32 31 30 29 29 28 29 31 31 31 30 29 28
25 28 29 32 32 31 30 27 26 28 26 24 26 27 28 26 26 29 33 34 33 32 32 31 31 32 30 30 30 30 28 30
25 26 28 30 33 33 32 30 28 27 28 25 25 23 23 23 24 24 24 28 32 33 32 30 30 31 31 32 30 32 32 30
26 27 27 28 31 34 34 32 30 27 26 29 28 28 28 25 25 26 28 29 30 31 31 30 31 31 31 34 35 35 33 33
27 28 28 28 30 34 35 34 32 29 27 27 31 31 30 27 27 28 29 28 28 27 26 28 29 29 29 31 34 34 34 34
29 29 28 28 28 31 34 34 33 30 28 29 31 31 31 30 29 27 25 26 24 25 25 27 25 24 24 25 28 30 29 29
30 30 30 29 29 29 31 31 31 29 29 28 29 30 30 30 26 25 24 22 23 23 23 23 22 22 22 24 25 27 27 27
31 32 32 32 31 31 32 32 32 30 28 28 30 31 29 25 23 25 23 22 20 19 21 22 21 21 21 23 26 26 27 28
31 32 32 33 33 33 34 33 32 31 27 28 30 28 26 24 24 23 22 22 22 21 20 20 20 20 21 23 25 25 27 28
31 31 32 34 35 33 32 31 31 30 26 28 27 25 23 22 22 21 22 22 21 20 20 19 20 21 21 22 22 24 24 25
32 32 34 34 34 30 29 29 28 26 26 26 25 24 22 21 22 22 22 22 21 21 20 20 20 19 19 19 20 20 21 21
32 32 35 34 32 28 27 27 26 24 24 24 23 21 23 23 22 22 22 21 20 20 19 19 18 18 18 19 18 19 20 22
31 34 35 36 32 28 26 25 25 23 22 21 23 25 23 22 23 23 22 21 20 19 18 17 17 18 18 17 18 19 21 22
33 35 37 39 31 25 25 23 23 23 24 26 28 25 24 24 23 22 21 20 19 17 15 16 17 17 16 17 19 20 22 23
34 37 39 38 28 24 23 21 24 27 29 29 25 24 23 22 21 21 19 17 14 15 15 16 16 16 18 23 23 22 23 23
36 39 39 35 28 23 22 26 30 36 28 26 24 22 21 21 20 18 15 14 14 15 15 15 17 19 21 23 23 23 24 25
39 39 38 32 29 27 30 36 32 29 28 24 20 20 20 20 18 15 13 14 14 15 16 17 19 20 22 24 24 24 25 25

GFSFLT1_sfc_30mbdewp_006.txt.gz
Dewpoint
26 27 29 31 34 33 33 33 33 35 35 35 37 38 38 37 38 39 38 37 35 35 37 37 37 35 36 37 37 37 37 35
23 29 31 32 33 33 32 31 33 33 32 32 33 34 35 37 37 36 37 36 36 35 35 34 36 35 36 36 37 36 35 37
26 30 32 33 33 34 33 32 32 33 32 33 32 34 34 35 35 36 35 37 34 35 36 33 34 34 35 37 38 35 36 34
25 27 29 35 35 36 35 33 32 33 32 32 33 33 32 31 31 34 37 36 38 37 37 36 35 36 36 37 35 35 34 36
27 27 28 31 35 38 37 36 34 32 35 31 31 30 29 29 30 31 32 39 38 36 36 37 37 36 35 37 36 39 37 35
28 29 30 30 32 38 38 38 37 35 34 34 32 32 32 32 32 32 32 33 33 33 33 34 36 37 37 37 36 36 37 37
30 31 31 31 34 34 38 38 37 37 36 35 35 32 33 34 33 32 32 32 32 33 32 32 32 32 32 32 32 32 32 33
31 32 32 33 33 35 38 38 37 37 38 38 35 36 35 34 35 34 31 30 28 29 28 29 28 28 28 29 29 29 30 30
31 33 34 34 35 36 35 34 34 35 37 38 37 36 35 35 35 33 28 27 26 27 26 27 27 27 28 28 28 29 29 29
32 33 34 35 36 36 37 37 37 36 36 38 36 36 35 34 32 30 28 28 25 27 27 27 27 29 29 29 28 27 29 29
33 34 34 36 37 38 38 39 36 35 35 36 33 33 33 30 28 28 26 26 25 27 26 26 26 26 26 26 27 28 28 28
33 34 34 36 37 37 37 34 32 33 32 33 32 31 30 27 26 25 25 27 26 26 26 25 24 24 24 25 25 26 25 25
33 33 34 36 37 39 39 34 31 31 31 31 30 29 27 26 25 26 27 27 27 26 25 24 23 23 23 23 23 23 23 23
34 34 35 36 38 40 40 32 30 29 27 28 27 27 26 25 28 28 28 27 25 25 24 24 23 23 22 22 22 22 22 22
33 34 36 37 39 40 36 29 29 27 25 25 26 24 25 28 28 27 27 26 26 25 24 23 22 21 20 20 20 20 21 21
38 38 36 38 39 39 32 29 26 26 24 23 26 32 31 31 27 27 26 26 25 24 21 20 21 21 19 18 21 22 22 23
39 37 37 38 38 38 29 26 25 25 27 35 38 35 29 26 26 25 24 24 22 20 20 20 21 19 19 22 26 24 24 23
39 39 39 38 37 33 30 31 37 38 38 36 34 33 26 24 24 23 23 21 20 20 20 20 20 21 22 25 25 24 24 24
39 39 38 38 35 35 39 40 37 35 35 35 33 24 22 22 23 22 19 19 19 19 20 20 21 23 24 24 24 24 24 25

GFSFLT1_sfc_30mbdewp_009.txt.gz
Dewpoint
26 29 31 32 33 33 34 32 30 36 36 35 38 37 36 40 44 43 42 40 37 35 40 40 37 37 38 36 35 37 37 34
31 32 32 33 34 32 31 32 33 34 32 32 33 35 36 37 36 40 40 39 36 34 35 38 38 36 37 37 37 35 33 36
30 32 32 31 32 33 32 32 32 33 32 33 32 32 34 35 36 37 38 38 36 35 34 35 34 34 33 34 39 36 37 35
26 27 31 33 33 33 34 33 33 34 32 32 33 35 35 33 34 36 37 36 37 37 36 37 36 35 34 36 35 34 33 36
28 27 28 32 34 36 36 35 35 34 35 31 30 30 30 30 30 31 35 37 38 38 37 38 38 37 36 38 38 37 36 35
28 30 31 32 33 36 38 38 37 37 36 36 32 31 33 32 32 32 35 38 40 39 38 37 37 37 34 33 32 31 34 34
31 32 32 32 35 35 37 37 36 37 37 37 37 34 33 33 33 33 35 36 33 32 31 31 30 29 28 29 28 26 25 28
30 31 32 33 34 35 36 37 37 37 38 38 38 37 36 33 33 35 31 32 30 29 28 28 29 29 29 28 27 28 28 27
32 34 35 35 35 36 37 37 37 37 38 39 39 39 39 36 36 36 33 29 29 30 30 30 29 31 32 34 32 28 29 29
33 34 35 36 37 38 38 38 38 37 37 36 36 39 39 37 34 29 29 29 29 31 32 31 34 35 35 32 31 29 29 29
34 34 35 36 38 39 39 39 38 36 34 34 34 35 31 32 31 28 27 29 31 32 34 35 35 34 31 27 28 28 28 29
34 34 36 38 39 39 40 40 40 35 33 34 33 31 28 28 28 27 28 29 32 34 34 34 31 26 26 27 27 27 26 26
35 36 37 37 38 40 40 40 40 32 32 32 31 29 27 26 25 27 29 30 31 29 29 28 26 27 27 26 25 25 24 24
39 39 38 38 38 39 40 39 34 30 29 29 28 27 26 26 28 28 29 29 29 29 26 26 26 26 25 25 23 22 22 23
39 39 39 37 38 38 39 35 29 29 27 27 26 26 26 29 29 30 29 28 28 27 26 26 26 24 22 22 22 21 22 23
39 39 38 38 39 39 37 28 31 28 26 29 34 34 32 31 31 29 29 27 26 26 26 23 22 23 20 20 24 25 24 24
39 40 39 39 39 37 32 35 37 38 37 36 36 35 34 32 28 27 26 24 25 22 21 22 21 21 21 27 26 25 25 24
39 40 39 38 38 34 35 38 38 38 37 36 37 37 36 35 30 25 24 24 21 20 20 20 20 23 24 24 24 23 23 23
40 39 38 37 36 37 39 40 40 37 37 36 36 36 34 24 23 23 21 20 19 18 19 21 22 22 24 25 25 25 25 24

GFSFLT1_sfc_30mbdewp_012.txt.gz
Dewpoint
26 29 32 34 36 37 36 32 39 39 38 38 38 39 38 40 45 46 45 43 41 38 41 41 38 38 37 37 35 37 36 34
31 31 33 33 33 33 33 31 30 35 34 34 33 35 36 37 39 45 44 42 40 37 36 40 39 37 37 37 36 36 34 36
31 31 32 32 31 31 31 31 32 33 32 32 32 32 33 35 36 39 43 42 40 36 35 36 38 38 37 37 38 36 36 37
30 31 30 31 31 32 32 32 32 33 33 33 33 34 35 34 34 36 38 41 40 37 36 36 35 36 33 34 36 35 33 37
26 27 30 33 32 34 34 35 34 34 34 33 31 30 30 31 31 33 36 39 39 39 38 37 37 38 37 38 37 37 36 33
29 30 31 30 33 33 36 37 36 36 37 36 34 32 32 32 33 32 32 35 38 39 39 39 40 39 35 30 28 26 29 28
31 32 32 33 34 35 37 38 37 38 38 38 37 36 35 34 34 34 33 36 38 39 38 35 32 31 30 30 31 30 30 30
30 31 32 33 34 35 37 37 37 38 38 38 38 39 39 37 36 35 35 34 32 31 31 31 32 34 35 36 36 36 34 30
33 35 35 36 37 38 37 38 39 38 38 38 38 39 40 40 39 37 36 34 31 32 34 36 37 38 38 38 36 35 33 30
34 35 36 37 38 39 39 39 39 38 39 39 36 36 38 38 37 35 34 32 33 35 37 39 39 39 39 36 34 31 32 31
35 35 37 38 38 39 40 39 39 39 40 35 34 35 35 33 30 29 31 34 36 38 39 39 39 38 34 30 32 32 29 29
36 37 38 38 38 39 39 40 40 40 34 33 34 30 31 30 29 30 31 34 36 37 37 35 34 33 33 32 29 28 28 27
39 39 39 39 39 39 39 39 40 33 31 33 32 29 28 27 28 29 31 32 32 32 33 32 31 31 29 28 27 26 25 24
39 39 39 40 39 38 39 40 34 30 30 31 29 27 26 26 28 29 30 30 29 29 29 28 28 28 27 26 25 23 23 23
39 39 39 40 39 39 39 35 33 30 28 29 28 28 27 30 29 30 29 29 28 28 27 27 27 27 24 24 23 23 24 24
39 39 39 40 39 39 38 34 36 35 33 34 35 34 32 31 30 31 32 30 27 27 27 24 23 23 21 23 26 25 24 24
38 40 40 40 39 38 35 36 37 38 36 37 37 37 36 36 36 34 31 30 26 23 21 21 20 21 23 25 25 24 23 22
38 40 41 39 38 36 36 38 40 38 38 38 38 38 37 34 35 32 30 24 21 19 18 19 21 22 22 24 25 24 24 24
39 41 40 38 37 36 38 38 39 38 38 37 36 36 36 34 29 23 20 19 18 18 19 20 20 21 25 25 25 25 25 25

GFSFLT1_sfc_30mbdewp_015.txt.gz
Dewpoint
27 29 33 33 38 42 41 41 46 46 43 42 41 40 40 40 41 46 47 46 45 42 43 44 40 39 39 37 35 36 35 34
31 30 33 34 38 38 36 33 40 39 37 35 35 35 36 38 38 42 46 46 44 41 40 42 40 37 36 37 36 34 35 36
32 33 33 33 34 34 34 32 31 33 34 33 33 33 34 36 37 38 41 44 44 42 38 39 40 38 37 37 36 36 36 37
30 31 31 31 31 31 32 32 32 33 33 33 33 34 34 34 34 35 37 43 44 43 39 37 39 40 37 37 37 36 33 36
29 30 30 31 31 32 33 33 34 34 34 34 32 31 31 31 32 33 35 38 41 43 41 38 37 38 38 37 38 37 36 34
28 28 28 30 32 33 35 37 38 38 38 37 36 36 35 35 35 34 34 35 39 41 41 40 39 39 38 37 34 30 29 28
29 31 32 32 34 35 37 37 37 39 38 38 38 38 38 38 38 37 37 37 36 39 40 40 38 34 32 32 32 32 32 32
31 31 32 34 36 38 38 39 38 39 39 38 39 39 39 39 39 39 38 37 35 35 36 34 35 37 38 39 38 37 37 35
34 35 36 37 38 39 39 39 38 39 39 39 41 38 37 38 39 40 39 36 33 36 37 38 39 39 39 39 38 38 39 38
34 36 37 38 38 38 39 39 39 39 40 40 37 34 34 36 37 36 35 34 36 38 39 40 39 38 39 40 37 35 35 34
37 37 38 38 38 39 39 40 39 40 40 35 32 33 34 35 33 33 33 34 37 39 39 38 38 38 38 38 35 33 32 31
38 39 39 39 39 39 39 39 39 40 35 31 32 33 32 32 31 32 34 37 37 38 34 34 36 36 35 34 32 31 29 28
39 40 39 40 40 40 39 39 40 34 32 31 32 33 30 29 30 31 33 33 33 31 32 33 33 33 32 29 28 27 25 24
39 40 39 40 40 40 40 40 35 34 31 30 30 30 28 28 29 31 31 31 30 30 30 30 29 29 28 27 26 24 24 24
39 40 40 40 40 40 39 38 35 36 34 31 29 29 27 29 30 31 30 30 30 29 28 28 28 25 23 23 22 23 24 24
40 40 39 40 41 40 39 35 37 38 38 36 34 33 33 35 37 36 35 33 32 29 26 23 22 21 20 23 25 24 23 23
40 39 39 40 41 39 37 37 37 39 39 37 37 38 38 37 36 33 33 34 30 23 20 20 19 21 23 24 24 25 25 23
35 37 39 40 41 38 36 36 38 38 37 38 38 37 37 37 36 35 33 25 20 19 19 20 20 21 23 25 25 25 25 24
32 35 40 40 37 36 36 37 37 37 38 38 36 36 36 32 26 22 19 19 18 18 18 20 22 22 23 23 24 25 24 24

GFSFLT1_sfc_30mbdewp_018.txt.gz
Dewpoint
28 29 34 35 38 42 45 46 47 47 47 46 44 43 42 42 42 44 46 47 47 47 46 46 45 43 42 40 35 36 34 33
31 30 32 33 36 40 42 41 41 44 42 39 37 36 37 38 38 40 42 45 46 46 44 44 44 42 40 39 36 34 35 37
32 32 33 34 36 39 39 37 34 39 39 35 34 34 34 36 37 37 39 42 45 45 44 42 43 42 40 38 36 35 35 37
30 31 32 33 34 35 35 34 34 33 33 34 33 34 34 33 33 34 34 37 40 43 44 42 41 42 40 38 37 36 33 36
30 30 31 31 31 32 33 34 35 36 36 35 35 34 34 34 34 35 35 36 37 40 43 43 41 40 40 39 38 38 36 34
27 28 30 32 33 35 37 38 39 39 39 39 38 37 38 39 39 38 39 38 38 38 40 42 42 40 40 39 38 37 35 35
29 32 33 35 38 38 39 39 39 39 39 40 39 39 39 38 37 38 39 40 39 38 39 41 40 37 35 33 34 33 33 34
34 35 37 38 38 38 39 39 39 39 40 40 39 36 36 35 36 37 38 39 35 35 36 37 38 38 38 38 38 38 38 38
36 37 37 38 38 38 39 39 39 39 40 40 39 35 34 35 36 37 38 37 35 38 38 39 39 39 40 40 40 40 40 39
37 37 38 38 38 39 39 39 39 39 40 40 35 34 33 33 34 35 35 35 37 39 39 39 38 39 39 39 38 37 37 36
37 38 39 39 39 40 40 40 39 40 40 35 33 33 34 33 33 33 34 36 38 38 38 36 36 35 37 36 37 37 36 35
38 39 40 40 40 40 40 40 39 40 35 33 33 33 33 32 31 33 34 37 38 38 36 35 34 32 35 36 36 33 31 29
38 39 40 40 40 40 40 40 39 39 34 34 33 33 31 30 31 32 35 34 34 32 33 32 33 33 32 30 29 28 26 24
39 39 40 40 40 40 41 40 39 35 36 36 35 33 29 28 30 31 32 31 33 35 33 31 29 29 28 26 24 23 23 23
39 40 40 40 39 40 41 40 37 36 38 38 36 33 31 33 36 36 36 36 35 34 32 29 26 23 22 21 21 23 24 24
39 39 36 36 37 40 41 39 37 37 38 38 36 35 37 38 37 36 35 34 33 30 24 22 22 21 20 24 24 23 22 22
34 32 29 31 38 41 39 37 36 38 37 36 37 39 37 37 36 35 34 34 35 24 20 20 20 21 23 25 26 26 26 25
32 31 35 39 38 37 36 36 37 37 37 37 38 38 37 37 37 35 34 25 20 19 19 19 20 22 23 22 22 24 25 25
33 37 36 35 35 35 36 36 34 33 34 32 30 29 30 28 22 20 20 19 18 18 19 21 22 20 21 21 22 23 23 23

GFSFLT1_sfc_30mbdewp_021.txt.gz
Dewpoint
34 33 35 39 45 47 48 50 50 51 50 50 49 48 47 47 46 45 47 47 50 50 49 50 50 50 50 50 48 43 38 36
32 33 33 36 40 44 45 46 48 47 46 44 42 41 40 40 40 42 43 43 46 48 47 48 49 47 47 48 46 44 39 39
32 33 35 37 38 41 43 43 39 38 41 39 38 37 37 37 38 40 41 41 43 44 46 45 46 46 46 46 45 41 39 39
32 33 35 36 37 37 36 36 37 38 39 37 38 39 39 38 38 38 39 41 41 42 43 44 44 45 44 45 44 42 39 38
30 31 33 36 37 40 40 41 40 40 41 40 40 39 38 38 39 38 40 41 41 42 42 42 43 44 43 43 43 43 41 38
31 33 36 39 41 41 42 41 41 41 41 42 40 38 38 39 39 39 38 39 41 42 41 41 42 43 43 43 43 42 40 39
36 38 39 39 41 41 42 41 40 41 41 42 42 39 38 37 37 36 35 37 40 40 39 41 41 41 40 39 38 39 37 37
37 38 38 39 39 40 40 40 39 41 41 42 42 38 38 37 36 35 35 35 37 37 39 40 39 39 39 39 40 40 40 39
38 38 39 39 40 40 41 40 39 40 40 41 41 38 37 36 35 36 36 36 37 39 39 39 39 40 40 40 40 40 38 37
38 39 40 40 40 41 42 41 39 39 40 41 37 37 37 36 36 36 35 37 38 40 40 39 39 39 39 39 38 37 37 37
37 38 40 41 41 41 42 42 40 40 40 39 35 37 36 36 35 33 34 37 39 39 39 38 38 37 37 37 36 36 36 36
38 39 40 41 42 41 41 41 41 40 40 36 37 37 37 34 32 33 35 38 39 38 35 34 34 35 35 35 35 34 33 31
39 40 41 40 39 36 38 41 42 41 37 38 37 37 34 30 32 33 35 34 36 37 37 37 37 35 32 30 29 28 26 24
40 40 39 36 34 36 39 41 41 39 37 38 38 35 31 33 36 37 37 38 37 37 36 33 32 31 26 24 22 21 21 21
40 38 36 33 33 38 40 39 39 38 37 38 37 34 36 37 37 36 36 36 34 33 33 28 25 22 20 20 21 22 22 22
38 34 31 34 38 36 34 35 36 37 38 37 37 36 38 36 36 36 35 34 34 35 33 24 23 21 19 22 21 22 22 21
34 32 36 35 31 32 34 35 36 38 36 37 38 39 39 38 37 36 35 36 34 25 22 21 21 19 23 24 23 20 20 20
33 35 32 31 32 34 35 36 36 33 35 36 36 34 33 33 31 24 22 22 22 20 20 20 21 22 21 21 21 20 21 20
35 32 31 32 33 34 36 36 33 32 30 31 27 25 24 23 22 22 21 20 20 20 20 21 20 18 20 21 22 22 22 21

GFSFLT1_sfc_30mbdewp_024.txt.gz
Dewpoint
45 44 43 43 45 49 50 52 51 51 50 50 47 47 45 45 42 41 43 43 45 47 45 46 47 46 45 45 46 45 44 41
35 36 37 38 43 46 49 48 49 48 46 44 41 40 38 38 38 39 43 43 43 44 44 44 44 45 46 46 45 45 45 43
34 37 39 40 42 43 43 42 41 39 37 38 40 40 39 41 42 42 42 42 42 41 42 43 43 43 44 45 47 46 44 43
32 35 38 39 40 40 39 40 41 42 41 40 40 39 39 38 38 38 39 40 40 40 40 41 42 43 42 43 44 44 44 44
33 35 38 41 42 42 41 41 40 41 43 40 41 39 38 39 39 39 38 37 37 38 39 40 41 41 41 41 41 43 43 42
35 37 39 41 43 43 42 41 41 41 42 42 41 40 39 39 39 38 37 35 34 34 38 40 41 41 40 42 43 43 43 42
37 38 38 39 41 42 41 40 39 41 41 42 41 40 39 37 36 33 31 31 31 33 36 39 41 41 41 41 41 41 41 41
37 37 38 39 40 41 40 40 38 38 38 38 38 36 35 34 34 32 33 32 32 34 38 39 40 41 41 40 40 40 40 40
37 37 39 39 41 41 41 40 38 37 36 36 36 36 36 36 35 35 34 33 34 37 39 40 39 39 39 40 40 40 38 38
36 37 39 39 40 41 41 39 37 37 37 38 39 38 39 37 36 35 32 35 35 38 39 38 39 40 39 38 39 38 37 37
37 37 38 39 39 40 40 37 37 38 39 40 38 39 39 37 35 33 34 36 38 38 39 37 37 38 38 39 38 38 36 36
37 38 39 39 38 37 35 37 38 39 39 39 39 39 38 35 32 33 36 37 37 36 37 38 38 38 37 36 35 34 32 30
36 37 38 35 35 33 36 37 37 36 35 36 37 37 36 33 33 34 35 35 38 39 38 37 35 33 34 33 29 27 25 23
35 36 35 34 31 34 34 31 29 31 32 33 34 35 34 34 35 36 36 36 37 36 34 32 29 28 26 24 23 23 23 22
36 36 34 31 33 31 26 27 30 32 34 33 32 35 35 36 36 36 35 33 32 32 32 33 33 28 24 22 21 21 21 20
36 34 30 32 27 25 27 31 32 33 32 31 32 37 38 39 38 35 35 32 31 31 29 25 24 23 18 22 21 19 19 18
35 31 31 29 26 26 29 31 32 32 31 30 33 34 34 34 33 30 26 23 22 22 22 22 21 20 23 22 22 18 17 18
30 30 30 28 28 27 30 32 32 32 30 29 28 27 26 25 23 22 22 22 21 20 20 21 21 21 21 21 21 19 19 20
29 32 29 28 27 26 29 30 30 30 28 28 26 26 23 23 22 22 22 20 20 20 20 20 20 18 20 20 21 20 20 20

GFSFLT1_sfc_30mbdewp_027.txt.gz
Dewpoint
40 45 42 42 44 48 50 51 53 52 50 48 45 44 43 42 41 40 42 43 44 45 45 45 46 45 45 46 48 46 46 46
39 40 41 40 44 45 48 50 51 49 46 44 41 40 40 39 39 42 44 44 44 44 43 43 44 43 45 47 48 47 48 47
37 39 41 41 42 42 43 43 43 41 39 40 41 42 41 42 42 42 41 42 42 41 40 40 39 41 43 44 46 46 46 47
35 39 41 42 42 41 41 41 42 43 42 40 40 39 39 39 39 41 41 42 41 40 39 39 40 41 40 42 42 42 42 43
35 38 40 42 43 42 41 41 41 41 43 41 43 42 41 41 42 41 41 40 37 36 34 35 38 40 41 41 39 43 42 41
37 37 40 42 43 43 43 40 41 42 43 43 43 42 40 38 38 37 36 33 33 32 33 35 38 40 41 41 42 41 40 40
37 38 38 40 42 43 42 41 40 40 41 41 40 39 38 35 35 34 33 34 33 33 33 36 38 39 39 40 43 42 42 41
36 37 38 40 41 42 42 40 40 39 39 38 38 37 36 35 35 35 36 34 32 31 34 37 37 39 41 41 40 40 40 39
36 36 38 39 40 41 42 41 38 37 37 38 38 38 37 38 38 38 36 33 32 34 36 40 41 42 41 41 41 40 39 39
35 36 38 38 38 38 40 40 37 37 38 38 39 40 38 38 38 36 34 33 33 37 40 39 39 39 39 39 40 40 40 37
36 36 36 37 38 37 38 36 36 37 38 38 37 37 36 36 36 33 32 34 39 38 39 38 38 38 38 37 38 38 37 38
35 35 36 37 36 36 34 36 36 34 31 30 31 33 34 34 32 32 34 36 36 37 37 38 36 35 34 34 34 33 32 30
34 35 36 36 34 33 33 33 27 26 26 27 29 32 32 31 33 35 35 35 36 35 37 36 34 33 29 27 28 25 24 24
34 35 36 35 33 32 29 24 25 27 28 29 30 30 33 35 35 36 34 35 35 35 35 35 31 28 26 26 24 22 21 20
34 35 35 34 31 29 24 23 26 29 29 29 28 32 36 36 39 38 38 36 34 34 32 27 24 21 20 20 19 21 20 19
35 36 34 31 29 26 25 25 27 29 29 28 28 33 34 36 36 35 33 31 25 23 21 20 20 19 18 21 21 21 18 17
37 33 30 30 26 26 24 24 27 29 28 27 28 29 28 28 28 26 24 24 24 21 19 19 19 18 24 23 22 20 18 18
31 30 31 30 27 26 23 24 24 26 27 25 27 27 27 27 26 25 24 22 19 18 18 18 18 19 22 22 22 20 18 19
30 33 31 27 27 26 23 23 22 23 23 25 25 27 27 25 22 21 19 17 18 18 18 18 19 18 23 23 22 20 20 19

GFSFLT1_sfc_30mbdewp_030.txt.gz
Dewpoint
41 43 44 46 48 49 50 51 55 55 53 51 49 47 47 47 46 46 47 46 48 48 48 48 50 49 48 49 50 51 50 50
42 44 45 45 47 49 50 50 50 49 49 46 44 44 43 43 43 45 45 46 45 46 46 46 45 45 46 47 47 47 47 49
41 43 44 43 43 43 44 44 44 44 43 43 44 44 44 44 44 43 44 46 45 44 44 44 44 44 44 45 45 46 46 46
40 42 44 44 44 43 42 42 43 44 45 43 44 45 44 42 45 45 45 45 44 43 41 40 42 43 43 44 43 43 43 44
39 41 44 45 45 45 43 42 42 43 45 45 46 45 44 43 41 42 42 39 40 38 38 40 41 42 43 43 42 44 44 42
38 40 42 44 45 45 44 42 41 43 43 43 43 43 42 41 40 39 38 40 39 39 37 38 41 41 42 44 44 43 43 42
38 39 40 43 44 44 44 42 41 42 41 42 41 41 41 39 40 39 40 40 38 37 37 38 41 44 43 43 43 42 41 40
37 37 38 40 41 42 43 43 41 40 40 41 41 41 41 40 40 41 40 38 37 36 40 43 42 42 42 42 42 41 40 39
35 36 38 39 39 40 40 41 40 38 39 41 43 43 42 41 41 40 38 37 36 42 42 41 41 40 40 40 40 40 41 40
36 37 37 38 38 39 39 39 37 37 39 40 39 40 39 39 39 38 36 37 38 40 40 40 39 39 39 39 39 39 38 38
35 36 36 37 38 38 39 36 37 37 34 32 30 33 35 36 37 36 38 37 37 37 38 38 38 38 38 36 35 35 36 37
34 34 36 37 38 37 35 35 34 29 29 29 31 33 34 35 37 37 36 37 37 37 36 36 37 37 35 35 34 34 34 34
34 35 37 37 36 35 34 31 26 27 28 30 31 33 33 35 35 36 38 36 35 37 37 37 37 34 32 30 29 28 27 26
34 35 36 37 35 33 30 27 25 27 29 30 30 31 34 37 38 38 39 39 38 37 36 34 34 32 27 24 23 24 24 23
35 36 37 35 33 32 28 27 27 27 28 29 30 34 33 36 36 37 37 38 37 34 31 27 25 23 21 22 23 24 24 22
38 36 34 32 32 31 28 27 26 27 28 29 29 31 31 32 32 33 31 29 28 27 26 23 23 22 21 23 23 22 22 21
38 33 32 32 32 30 27 27 25 26 26 28 28 28 30 30 30 30 29 27 27 24 22 22 22 20 24 24 24 23 22 21
34 33 33 33 33 27 27 27 25 25 24 25 26 26 29 29 29 27 25 25 22 22 21 22 22 24 25 25 24 23 22 21
33 32 33 34 28 27 27 27 25 25 23 21 22 25 25 27 27 24 23 21 21 21 21 25 24 22 26 26 24 22 21 22

GFSFLT1_sfc_30mbdewp_033.txt.gz
Dewpoint
45 46 48 50 51 52 53 53 54 56 55 53 51 49 47 48 47 46 45 47 47 47 46 46 47 45 46 45 45 45 46 47
45 45 46 46 47 46 45 44 46 47 45 43 44 42 43 44 46 45 44 47 47 45 45 44 44 44 43 44 45 43 43 45
45 45 46 46 44 44 44 43 44 44 45 44 45 45 44 45 46 46 46 44 44 44 42 42 43 43 44 44 42 41 43 44
43 44 44 44 43 42 43 43 43 45 45 46 46 46 45 43 42 43 40 41 40 39 38 39 40 42 42 42 42 44 43 44
43 44 44 44 44 43 43 42 42 44 44 44 43 43 42 42 41 41 41 41 40 38 38 38 40 42 43 44 43 43 42 40
42 43 44 44 44 43 43 43 43 43 44 43 42 42 41 41 40 40 41 41 38 38 38 42 43 43 42 42 42 41 41 40
41 43 44 44 45 44 43 42 42 41 42 43 42 42 41 40 40 41 40 39 38 41 42 42 42 42 42 42 41 41 40 39
38 39 41 42 42 42 42 41 39 39 41 42 42 41 41 40 41 39 38 37 39 42 41 40 40 41 40 40 40 40 40 39
37 38 39 38 39 39 39 39 38 40 42 40 39 39 39 40 40 38 37 38 40 40 40 39 39 39 39 39 39 40 39 38
37 37 37 38 38 39 39 37 38 36 32 30 31 34 34 34 38 38 38 38 38 39 39 39 39 38 38 38 38 37 36 37
37 36 37 38 38 38 36 37 33 29 29 30 31 32 33 37 37 36 36 36 37 37 38 37 35 36 37 37 36 35 35 36
35 36 38 37 37 36 35 28 27 27 28 29 31 32 35 36 37 37 38 38 36 36 37 37 37 37 37 35 34 33 32 32
36 36 37 37 35 34 28 26 26 27 28 30 30 31 36 37 37 38 38 38 38 38 37 36 35 35 34 33 29 28 25 23
37 37 35 34 34 31 28 27 27 26 28 29 30 32 34 35 37 37 37 37 37 37 36 34 33 31 26 25 26 25 24 23
39 37 34 33 33 33 29 28 26 26 28 28 29 33 32 33 35 36 36 36 35 34 29 28 25 24 24 23 23 23 22 22
36 34 33 33 33 33 33 28 27 26 25 26 28 32 32 32 31 32 31 30 29 28 24 23 24 23 23 23 23 23 22 22
34 33 33 33 34 33 29 27 27 28 26 26 26 30 30 31 30 29 29 28 27 23 22 24 24 22 26 26 25 23 22 21
34 33 33 33 33 34 31 27 28 28 28 27 26 29 30 30 29 29 27 26 22 22 22 24 23 24 27 26 26 24 22 20
34 33 33 33 33 32 27 25 27 29 27 27 28 29 29 30 32 28 25 20 20 21 24 25 23 23 25 25 27 25 23 22

GFSFLT1_sfc_30mbdewp_036.txt.gz
Dewpoint
46 47 48 48 49 52 54 55 58 59 57 53 48 46 45 48 47 46 47 49 47 46 46 45 45 44 43 44 44 43 43 42
46 47 48 48 48 46 48 48 49 49 48 46 45 44 44 46 46 46 46 44 43 41 42 41 42 42 43 43 43 41 40 44
44 45 46 46 47 47 44 44 44 45 45 46 46 46 45 43 43 42 41 40 39 38 39 40 41 41 40 41 43 42 44 44
44 44 44 44 43 43 43 43 44 44 44 44 44 45 44 42 41 41 41 39 38 37 38 39 41 42 42 43 43 42 42 42
43 43 43 43 42 43 43 43 43 44 44 43 42 42 40 41 41 41 41 39 38 39 41 42 43 43 42 42 42 41 40 39
43 43 43 43 43 43 42 42 42 42 43 43 42 41 42 42 42 41 40 39 39 42 42 42 41 41 41 41 41 40 40 38
43 43 44 44 44 43 43 39 39 41 42 42 42 41 41 40 41 40 39 39 41 41 41 41 41 40 40 41 40 40 39 38
42 43 43 44 43 42 40 39 39 42 42 41 41 40 40 40 41 38 37 37 40 40 39 39 39 39 39 38 38 38 39 37
40 41 42 40 39 39 40 39 40 40 35 32 34 36 36 37 38 38 38 39 40 40 39 38 38 37 37 37 37 37 38 35
38 40 38 38 39 39 38 38 33 30 30 31 32 33 34 37 37 37 37 37 38 39 39 39 38 38 37 37 37 36 36 35
38 38 38 38 38 37 34 29 28 28 29 30 32 33 37 37 37 36 36 37 37 37 37 37 36 37 37 37 36 35 34 34
37 38 37 36 36 30 27 27 27 27 28 30 31 32 36 37 37 37 37 37 36 37 38 37 36 35 35 33 32 33 31 27
36 35 34 34 34 28 27 26 26 26 27 29 30 31 36 36 37 37 36 34 36 36 36 36 33 33 33 29 27 26 24 23
37 35 33 33 34 33 29 28 26 26 28 28 27 29 34 35 36 36 35 35 35 35 35 33 29 28 25 25 24 23 22 23
36 34 34 33 34 34 34 32 28 27 27 27 27 28 33 33 35 36 35 36 35 33 30 27 26 24 23 22 23 23 23 22
34 34 33 33 33 34 34 32 29 29 28 27 27 28 32 33 34 33 34 32 31 29 25 25 24 23 23 24 23 23 22 22
34 34 32 31 32 33 34 33 30 29 29 28 30 29 31 31 32 33 32 30 32 24 23 24 23 23 26 26 25 24 23 22
34 32 32 33 33 32 23 23 24 24 26 30 30 29 31 32 32 34 35 34 28 22 24 25 23 24 27 26 27 26 24 23
32 33 33 28 27 21 20 20 19 20 28 31 32 32 32 33 34 34 32 30 26 21 25 24 23 23 26 27 27 26 25 24

GFSFLT1_sfc_30mbdewp_039.txt.gz
Dewpoint
47 48 50 52 54 55 57 58 59 58 53 51 47 47 46 46 46 46 45 44 44 43 42 42 43 42 41 41 41 41 40 43
47 48 48 51 52 54 54 54 52 50 48 46 45 44 45 43 42 42 41 40 39 39 40 39 40 38 40 41 41 39 40 43
45 47 48 48 49 48 46 46 46 46 45 46 46 44 42 41 41 40 39 38 37 37 37 39 41 40 41 42 42 42 43 42
45 45 46 46 44 43 43 43 43 44 44 44 45 44 43 41 40 40 40 38 38 38 39 40 41 42 42 42 41 39 38 40
44 43 43 42 43 43 43 43 43 43 43 42 41 40 39 41 41 41 40 39 39 41 42 42 42 41 40 40 41 40 40 38
42 42 42 42 43 42 43 43 43 43 43 43 41 41 42 42 42 41 40 39 42 42 42 41 40 40 40 40 40 39 39 38
43 43 43 43 44 41 40 40 41 43 42 42 41 41 40 39 40 40 39 39 41 40 39 39 39 39 39 39 39 38 38 38
42 43 43 44 43 42 39 39 41 41 40 39 39 38 38 38 38 38 38 37 40 39 38 38 38 38 37 37 36 36 37 36
42 43 43 43 42 40 39 41 40 35 31 32 34 34 34 35 37 38 38 38 38 39 39 38 37 37 36 37 36 36 36 36
38 40 39 39 39 39 39 36 31 30 31 31 32 33 34 35 37 37 37 37 38 39 38 38 38 38 37 37 36 35 35 35
38 38 37 37 37 37 34 30 28 28 29 30 31 32 36 37 37 36 36 36 37 37 37 37 37 37 37 37 34 33 33 33
36 35 35 35 35 29 28 27 27 26 28 30 31 31 35 37 36 36 37 37 36 36 36 37 37 34 33 33 32 29 25 24
35 34 34 34 34 29 28 27 27 27 27 28 29 31 32 35 36 37 37 36 34 35 35 36 35 31 28 26 25 25 23 22
35 34 34 33 34 34 34 32 31 27 27 28 29 28 29 32 35 36 37 35 35 35 35 34 31 26 25 24 23 22 22 22
35 34 33 33 33 34 34 34 32 30 30 29 28 28 29 31 33 35 36 35 36 34 34 31 27 25 23 22 23 22 22 22
34 33 32 32 32 33 32 28 27 27 25 28 29 30 30 31 33 33 34 35 34 34 35 31 26 24 22 23 23 22 22 22
33 33 32 32 32 30 25 23 22 23 23 29 30 29 30 31 32 33 33 35 35 36 32 27 25 23 25 25 26 25 25 24
33 33 32 29 27 23 18 19 20 20 26 30 31 31 30 30 31 34 34 33 33 30 26 26 23 24 26 27 27 27 26 25
32 31 25 24 18 16 18 18 19 21 28 31 31 31 32 33 33 34 31 31 30 29 25 24 22 23 27 27 26 24 22 22

GFSFLT1_sfc_30mbdewp_042.txt.gz
Dewpoint
48 51 53 55 57 58 59 59 58 56 54 52 51 47 44 44 43 43 42 42 42 41 41 41 40 39 39 40 39 40 40 43
48 50 52 54 55 57 58 58 57 54 52 47 45 42 43 41 41 40 39 39 39 39 39 39 40 39 41 42 42 41 41 42
46 47 48 49 51 52 53 51 50 48 46 45 43 42 41 41 40 39 38 38 38 38 39 39 40 40 41 41 40 39 40 41
45 45 47 48 45 43 44 44 44 44 45 45 45 43 42 40 40 39 39 39 39 40 40 41 41 41 39 39 40 38 38 39
45 45 42 42 42 43 43 43 42 43 43 41 40 39 39 40 41 40 39 39 41 41 41 41 40 39 38 38 40 39 38 37
42 42 42 42 43 43 43 43 43 43 43 42 41 41 42 42 42 41 40 40 42 41 40 39 37 38 38 39 39 38 38 37
42 42 43 43 43 42 42 41 42 42 42 42 41 41 40 39 40 40 39 39 40 40 38 38 38 37 37 37 37 36 36 37
42 43 43 44 43 40 39 41 41 41 40 39 39 38 36 34 35 35 36 37 38 39 38 37 37 37 37 37 36 35 35 35
42 43 44 44 42 40 39 41 38 33 32 32 33 32 31 33 35 37 37 37 38 38 38 38 37 37 37 36 36 35 35 35
40 41 41 39 39 39 40 36 31 30 30 31 31 31 32 34 36 37 36 37 37 38 38 38 37 37 37 37 36 35 34 34
39 38 38 38 37 36 31 30 28 28 29 30 31 31 33 35 36 35 36 36 36 36 37 36 36 37 37 36 36 34 32 32
35 34 35 33 29 28 28 27 27 26 27 28 30 31 32 36 36 36 36 36 36 35 35 35 36 36 34 33 32 28 25 24
34 34 34 33 34 34 31 30 32 31 28 28 28 30 30 31 33 35 37 37 37 34 35 35 35 34 31 27 26 25 22 22
34 34 32 33 34 34 34 34 33 31 29 29 28 29 29 29 30 32 35 36 36 35 35 35 34 31 26 25 24 22 22 22
34 32 32 32 32 33 32 27 26 25 24 25 28 29 28 29 31 31 33 34 35 35 34 33 33 30 25 23 23 22 22 22
33 32 32 32 31 29 26 24 23 24 23 26 29 30 29 29 29 30 33 34 34 35 35 35 32 24 23 23 23 23 24 24
32 32 32 29 27 25 20 19 19 22 22 28 30 30 29 29 30 31 33 34 34 35 34 32 26 26 25 26 28 27 27 26
32 32 29 27 22 20 17 19 20 21 23 27 31 30 30 31 33 33 33 31 31 30 28 27 24 23 26 27 28 25 23 21
32 30 24 21 17 18 19 20 20 20 24 27 30 29 30 32 33 33 32 32 33 31 27 24 22 24 26 27 26 21 19 19

GFSFLT1_sfc_30mbdewp_045.txt.gz
Dewpoint
50 54 56 57 58 59 59 59 58 56 56 55 52 50 46 46 47 44 45 44 44 43 41 42 41 40 40 40 39 38 38 39
52 54 57 58 58 58 59 58 57 56 54 50 46 45 44 43 42 42 42 41 41 42 41 41 41 40 41 40 38 37 34 38
50 52 54 56 57 58 58 57 55 53 50 47 45 43 43 42 41 41 41 42 42 41 42 41 41 39 40 39 39 35 34 38
46 48 50 52 53 54 52 51 52 51 48 47 45 44 43 41 41 40 41 42 42 42 42 42 41 39 37 37 38 37 33 36
45 45 44 45 45 46 45 45 45 46 46 45 44 41 40 42 42 41 40 42 43 42 42 41 40 39 37 37 37 38 38 33
43 42 42 43 45 45 45 45 45 45 45 45 43 43 43 43 43 43 42 42 42 41 41 40 38 37 37 37 36 36 36 35
42 42 43 43 45 45 44 44 43 44 44 44 44 43 41 39 39 39 39 40 41 41 40 40 39 38 37 36 37 37 36 36
42 42 42 43 43 42 42 43 42 42 41 40 39 38 35 32 33 32 34 36 38 39 41 40 38 38 38 38 37 37 37 36
43 43 44 44 44 41 42 42 38 35 35 35 35 34 32 32 34 34 35 36 36 39 40 40 39 39 38 38 38 38 38 38
43 44 44 43 42 42 43 37 34 33 33 34 33 34 35 35 36 38 38 38 38 39 40 39 39 39 39 39 38 37 37 36
40 40 40 39 39 37 35 32 30 30 31 32 32 33 34 35 37 38 38 38 37 38 38 38 37 37 38 38 37 35 35 34
36 36 35 32 31 31 30 29 29 31 29 31 32 32 33 33 33 34 34 36 37 38 38 36 35 36 37 36 33 32 28 27
34 34 34 34 35 35 34 35 34 32 31 31 30 31 32 32 31 31 33 34 36 37 38 36 36 36 35 32 30 26 25 23
34 33 32 33 34 35 33 29 26 26 25 24 26 30 30 29 30 31 31 32 34 36 36 36 35 34 33 32 26 24 23 23
33 32 32 32 33 32 26 25 25 23 23 23 28 30 30 30 31 30 32 34 34 35 35 35 35 34 32 29 24 23 23 23
32 31 31 30 28 25 23 22 22 23 23 24 29 32 31 30 30 32 33 35 35 35 35 34 34 32 29 26 24 24 25 24
31 32 30 27 25 22 19 20 21 23 23 25 30 32 31 30 31 32 34 34 33 32 32 32 29 27 26 28 27 25 24 20
32 32 27 27 20 19 19 20 22 23 23 25 28 31 30 30 31 32 32 32 33 32 31 29 27 25 27 28 26 22 19 17
32 29 25 20 19 20 22 23 23 23 24 24 26 29 29 31 32 31 32 33 34 31 31 27 24 24 25 26 24 21 19 15

GFSFLT1_sfc_30mbdewp_048.txt.gz
Dewpoint
50 52 53 52 54 56 58 59 58 58 58 58 57 54 48 48 46 46 45 45 45 43 43 44 42 42 41 41 39 36 35 32
53 55 55 56 57 58 59 58 58 59 58 54 50 46 45 44 42 44 43 43 44 44 42 43 42 41 40 38 35 31 29 31
53 55 56 56 57 58 58 57 57 57 55 49 46 45 42 41 42 44 43 44 44 42 44 42 41 36 36 35 34 31 28 29
52 54 55 56 57 57 55 56 56 53 48 47 46 45 42 41 42 41 43 44 44 44 42 39 37 35 31 33 33 32 29 28
46 44 45 48 50 50 49 51 49 49 47 44 41 39 39 42 42 42 42 44 43 40 38 37 35 35 34 32 29 34 31 28
39 39 41 42 45 46 45 44 44 46 46 44 43 42 43 42 42 41 41 40 40 37 36 36 35 34 33 35 34 33 32 30
39 40 41 43 46 47 46 44 44 45 45 45 44 43 39 35 33 32 31 31 31 33 34 35 35 36 35 35 35 34 33 32
40 40 41 42 44 45 45 43 43 44 43 41 38 36 34 32 32 30 29 27 28 30 32 34 35 35 37 36 34 33 33 32
40 41 42 43 44 44 43 42 41 39 38 35 35 33 32 32 31 32 31 30 31 32 35 36 37 37 37 36 35 34 34 34
41 42 43 44 44 44 44 41 37 35 34 34 33 34 33 33 33 34 34 36 34 34 36 37 37 36 36 35 34 33 32 33
42 43 45 44 44 43 41 36 32 31 32 33 31 32 32 33 34 33 32 32 31 32 32 32 32 33 34 33 32 30 31 31
42 41 42 41 39 37 34 31 31 33 31 32 33 31 28 27 27 26 26 26 24 24 24 27 29 31 32 33 33 31 31 29
39 38 35 34 34 33 34 35 33 34 33 26 24 25 25 24 23 24 25 24 25 26 28 30 31 32 34 34 33 34 31 27
36 36 35 35 35 34 33 31 28 23 20 21 21 22 22 22 23 24 25 26 28 28 30 30 30 33 33 34 33 33 29 25
35 34 33 32 32 29 28 25 22 20 20 19 17 21 24 24 25 26 27 28 29 30 30 33 35 35 33 34 30 27 26 24
34 33 31 30 28 25 22 20 20 21 19 17 18 24 25 25 26 27 28 30 30 30 31 32 33 32 29 28 27 25 24 23
32 30 29 27 24 21 18 19 21 21 18 19 20 23 25 27 27 28 29 28 29 30 29 29 29 27 26 27 26 23 22 19
30 29 27 24 21 18 19 20 21 21 19 18 19 21 23 26 26 28 28 28 29 30 30 30 29 28 27 29 24 21 20 18
30 30 26 21 19 20 22 20 19 19 18 19 20 22 23 25 28 28 27 28 30 30 31 32 29 25 26 26 24 21 20 19

GFSFLT1_sfc_30mbdewp_051.txt.gz
Dewpoint
47 48 49 47 47 52 57 60 59 58 59 57 57 56 55 53 49 48 47 46 45 43 44 45 43 42 42 41 40 36 33 31
50 51 52 51 53 56 60 59 58 59 58 55 53 51 50 46 44 44 44 44 44 45 42 43 43 39 39 38 35 32 30 29
52 54 55 55 56 57 59 58 58 57 52 52 51 48 44 41 43 45 45 45 45 41 45 41 40 38 34 33 34 32 30 28
52 53 55 56 57 57 57 55 55 52 48 47 46 43 43 41 43 43 45 44 44 43 41 39 37 34 31 33 32 31 29 28
50 51 53 54 53 51 49 49 49 47 45 42 42 38 39 43 43 43 43 44 41 39 37 35 35 35 34 33 31 34 31 28
44 45 46 47 48 48 48 47 45 46 45 43 43 42 43 43 42 42 40 40 38 37 34 33 35 34 33 34 34 33 31 29
39 39 41 44 46 46 45 44 44 45 45 46 45 44 42 39 36 36 34 31 30 30 31 33 33 33 33 33 37 36 33 33
37 39 40 44 45 46 45 43 43 45 45 45 42 40 37 36 35 33 31 28 28 29 31 32 31 31 32 35 36 36 33 34
38 39 40 42 44 45 44 43 43 44 42 39 38 36 35 35 33 32 32 31 32 33 32 32 31 32 35 33 37 37 35 36
39 40 42 43 44 45 44 43 42 40 38 36 36 35 35 34 33 34 33 33 30 28 30 30 29 29 29 31 35 34 34 33
40 41 43 44 45 45 46 43 39 35 34 35 33 34 34 33 33 30 29 27 26 24 24 24 24 26 26 27 32 32 33 34
41 42 44 45 45 45 42 37 34 33 33 34 36 33 29 27 27 25 24 25 24 24 24 25 26 27 26 27 32 31 29 30
41 43 43 43 42 40 37 35 35 34 35 37 27 25 25 24 22 22 24 24 25 26 26 26 27 26 26 28 29 29 29 29
41 41 39 38 37 36 36 34 33 32 28 21 21 21 20 21 22 23 24 25 27 27 27 27 27 31 33 33 32 31 32 31
39 38 37 37 37 36 31 32 28 24 20 19 17 18 22 23 24 24 25 27 28 27 27 28 31 33 31 31 30 30 28 28
37 37 36 35 34 31 30 28 24 22 20 17 16 20 23 23 24 26 27 28 27 26 27 28 30 30 29 27 28 28 26 25
37 36 35 33 31 28 27 23 21 21 17 16 17 18 20 21 23 26 26 26 26 27 29 30 30 29 27 27 26 24 22 20
36 34 33 31 27 25 21 21 21 19 17 15 15 17 18 20 21 22 25 26 26 28 30 30 32 31 28 28 25 22 21 19
35 33 31 28 24 21 22 20 18 17 16 16 16 18 20 21 23 25 25 25 26 27 29 30 31 34 28 26 25 22 20 20

GFSFLT1_sfc_30mbdewp_054.txt.gz
Dewpoint
42 43 43 43 52 57 61 60 58 58 58 58 58 58 56 54 52 50 50 48 47 47 48 47 46 44 44 43 42 39 37 36
48 48 49 48 53 60 60 59 58 59 58 56 54 52 52 49 47 47 46 46 46 47 46 45 44 42 40 39 38 37 36 36
49 52 52 52 58 60 60 59 58 58 58 57 54 52 49 46 47 46 47 46 45 45 45 43 42 40 38 39 38 36 34 35
51 53 55 57 59 60 58 58 58 58 54 52 52 50 46 44 46 46 46 45 44 42 42 41 39 38 37 37 37 36 35 34
51 54 56 57 57 58 58 58 57 53 47 47 45 43 43 45 46 47 46 45 42 41 38 37 38 38 38 38 35 37 35 34
50 55 55 57 57 57 54 50 49 47 46 46 45 45 46 46 45 43 41 42 42 40 37 37 37 38 38 38 39 38 37 34
47 49 50 50 51 51 50 47 46 46 46 46 45 46 43 41 40 38 38 36 34 34 34 37 37 37 37 38 37 38 39 38
43 44 44 47 47 47 46 45 45 46 47 47 46 42 39 37 37 37 35 34 34 35 37 36 36 35 36 37 38 38 39 38
40 41 43 46 47 47 46 44 45 46 46 43 42 38 39 38 36 35 36 35 36 36 35 35 35 35 35 35 36 37 39 38
39 40 43 45 46 47 46 45 45 45 42 41 38 38 37 35 36 36 36 35 30 30 29 30 30 30 31 33 33 35 36 36
39 40 42 44 45 46 47 46 42 39 38 38 37 35 35 37 34 33 31 29 29 28 28 29 29 30 31 31 31 34 34 35
40 40 43 44 46 47 47 44 38 36 37 35 36 38 35 29 29 28 26 27 27 28 28 29 29 29 30 31 33 31 32 32
40 42 44 45 46 46 45 40 37 36 35 37 38 38 28 27 26 25 26 26 28 28 29 29 30 31 35 34 33 33 32 31
40 42 44 44 44 43 41 37 36 36 35 36 31 24 23 23 24 26 27 27 28 29 30 30 30 32 32 32 32 31 31 31
41 42 42 41 41 39 38 36 35 33 32 22 21 19 22 26 27 27 28 29 29 30 30 30 31 31 32 30 28 29 30 29
40 40 40 39 38 38 35 34 31 27 22 20 19 22 23 25 26 28 29 29 29 30 29 31 32 32 31 30 29 27 28 27
39 38 38 38 37 35 32 30 27 24 21 18 18 19 20 22 25 26 27 28 28 29 30 31 32 31 29 27 26 26 25 24
37 37 37 37 35 32 29 25 24 21 19 17 17 18 20 22 23 24 26 28 29 29 29 30 31 31 30 31 25 23 24 24
37 37 36 34 30 26 24 21 20 19 16 16 17 19 21 22 24 26 28 29 28 28 27 28 32 32 33 31 25 23 24 24

GFSFLT1_sfc_30mbdewp_057.txt.gz
Dewpoint
40 44 50 54 56 59 59 58 57 57 57 56 57 57 55 54 51 50 49 49 49 49 47 46 44 42 42 42 38 37 36 36
42 46 49 55 59 59 58 56 57 57 56 55 56 54 53 51 49 49 48 47 47 46 46 44 43 39 39 39 37 36 35 36
48 49 52 58 60 59 58 56 57 56 55 56 53 53 51 49 48 48 47 46 46 45 43 41 39 37 38 37 37 35 35 35
50 52 59 60 59 59 57 57 57 57 57 58 53 51 49 47 46 46 46 46 44 41 40 39 38 37 36 36 36 36 33 34
52 56 58 59 59 59 59 58 57 58 58 53 50 47 44 45 46 47 46 44 42 40 38 36 37 38 37 37 37 36 37 35
54 55 56 58 58 58 58 57 57 57 52 49 47 45 45 47 47 46 46 44 43 40 38 37 37 39 39 39 40 36 36 35
55 56 56 56 57 57 57 56 50 47 48 47 46 46 44 40 39 38 38 35 36 37 37 37 36 35 35 36 37 38 38 38
53 54 54 54 53 52 49 46 46 46 47 44 40 39 38 37 38 36 35 34 36 37 36 35 35 35 34 34 34 36 38 37
48 48 48 47 47 46 45 45 46 47 44 41 40 40 39 37 36 37 36 37 36 31 29 30 30 30 30 31 33 33 36 39
44 45 47 47 47 46 46 45 46 46 42 39 38 37 36 36 38 37 38 33 29 28 29 28 29 29 30 31 31 31 35 35
41 44 46 47 47 47 47 46 45 41 39 38 37 35 35 38 37 36 32 29 28 28 28 29 29 29 31 33 34 34 33 33
40 43 46 46 47 47 46 41 38 38 35 35 34 35 38 35 32 29 27 27 27 28 29 29 29 31 34 34 33 33 32 32
40 42 45 46 47 47 40 38 37 36 35 35 37 39 36 30 27 27 28 27 29 29 29 30 30 34 32 31 32 31 31 29
40 44 46 46 46 43 39 37 35 37 38 36 36 37 27 25 27 28 27 27 28 29 29 29 31 32 30 30 32 31 29 29
41 45 45 45 44 39 37 37 36 35 34 34 30 23 26 27 27 27 28 29 29 29 29 31 31 31 31 32 30 29 30 30
43 43 43 43 40 37 35 35 32 31 28 22 23 23 23 23 25 27 28 29 30 29 30 31 32 32 31 30 31 29 27 27
41 41 40 39 38 35 34 33 31 24 20 20 21 21 21 22 24 25 26 27 29 30 31 31 31 31 30 28 26 27 30 29
39 39 39 38 36 34 31 28 23 20 19 20 19 20 22 23 24 25 26 28 31 30 30 29 29 31 30 30 31 28 26 26
38 38 36 34 31 28 24 22 21 19 19 18 20 20 21 24 26 26 29 29 28 28 29 28 30 32 32 32 29 30 24 24

GFSFLT1_sfc_30mbdewp_060.txt.gz
Dewpoint
52 54 51 52 53 56 58 58 57 57 56 56 56 54 54 53 50 49 49 50 49 48 47 44 43 40 41 38 36 37 36 34
53 53 51 53 56 57 58 57 56 56 55 55 54 52 53 50 50 49 48 48 48 46 45 42 40 38 38 37 37 35 34 35
45 48 53 57 57 58 57 56 56 56 55 55 55 53 52 49 49 49 46 47 46 44 42 40 38 38 37 36 36 35 35 35
47 51 57 58 58 57 56 56 56 56 55 55 53 50 49 48 47 46 46 45 44 42 40 38 37 37 36 36 36 35 33 35
54 56 58 58 58 57 57 56 56 56 56 56 51 48 46 46 46 46 46 44 42 40 39 38 38 39 37 38 38 37 37 35
55 57 58 58 58 58 57 57 57 57 57 56 51 47 46 46 47 46 46 44 43 41 39 38 39 38 37 36 37 36 37 35
55 57 58 58 58 58 58 57 57 57 56 52 49 46 46 46 46 44 41 38 38 38 37 37 36 35 35 35 35 35 36 38
55 56 57 57 57 57 57 56 52 50 48 48 46 44 43 42 40 37 35 36 37 36 35 32 32 32 31 31 31 32 33 35
55 55 55 55 55 55 53 49 47 45 42 41 39 39 39 39 38 38 38 37 34 34 31 30 29 29 30 31 32 32 34 37
53 53 52 51 50 49 48 46 47 43 40 39 38 38 37 37 39 39 40 38 33 30 29 28 29 29 32 33 33 34 33 34
50 50 49 47 46 46 46 46 45 41 39 38 37 36 38 38 39 40 37 31 29 28 28 28 29 31 33 33 33 33 32 32
47 48 47 47 47 46 45 45 43 39 38 37 35 37 39 38 35 33 30 28 28 28 29 29 29 32 34 33 32 32 31 31
44 46 47 47 47 46 44 42 39 37 36 36 38 38 39 35 30 29 29 28 29 29 29 29 30 33 33 31 30 31 30 29
42 45 46 46 47 42 39 38 36 37 38 37 39 41 28 27 28 28 27 27 28 29 30 29 30 33 32 30 31 31 31 29
41 44 45 47 41 38 37 38 40 41 39 38 33 27 28 28 28 28 29 30 29 30 30 31 32 32 31 31 31 30 29 30
43 46 46 40 38 38 40 40 40 37 31 26 26 25 25 24 24 24 26 27 28 30 32 32 32 32 32 32 31 31 28 27
44 45 44 42 41 41 40 37 31 24 23 23 24 22 22 23 24 25 26 27 29 31 31 32 31 31 31 30 29 27 29 30
44 44 43 42 40 38 34 27 23 22 22 22 23 23 22 24 25 26 26 29 30 28 28 30 30 30 32 30 29 30 30 27
41 40 38 36 33 28 24 22 22 21 21 21 21 23 25 26 25 26 27 30 28 27 27 29 29 30 32 31 32 28 28 27

GFSFLT1_sfc_30mbdewp_063.txt.gz
Dewpoint
54 55 56 54 54 54 59 57 56 56 55 55 54 54 54 52 51 50 49 49 48 46 46 45 42 41 39 36 35 36 35 33
52 55 55 52 53 56 58 56 56 55 54 53 52 51 52 49 49 49 49 49 48 45 43 41 39 38 37 35 36 34 34 35
50 53 53 52 54 56 57 56 56 55 54 55 54 52 51 49 49 48 48 48 46 44 41 39 38 37 36 36 36 35 35 35
49 52 52 54 54 56 57 56 56 55 55 54 52 51 49 48 48 47 47 46 44 42 41 39 38 37 36 36 36 35 34 35
46 48 53 54 55 57 57 56 56 56 55 54 52 50 47 47 47 46 46 46 44 42 40 39 38 39 37 38 38 37 36 34
44 48 54 56 56 56 56 57 56 56 56 55 51 49 47 47 47 46 46 44 42 40 39 39 39 37 36 36 36 36 37 35
50 51 56 57 57 57 56 57 56 56 56 55 52 49 46 46 46 45 43 41 40 38 37 36 36 35 33 33 33 33 34 36
55 55 56 57 57 57 57 56 56 56 56 54 53 49 46 46 45 42 37 37 37 36 37 38 32 30 30 30 30 31 31 32
55 56 57 57 57 57 57 56 54 54 53 51 47 45 44 43 41 38 38 38 36 39 39 32 29 29 30 31 32 33 35 35
54 56 56 57 56 56 55 53 50 46 46 44 42 41 40 38 40 41 41 40 41 38 32 29 29 30 32 33 32 32 32 32
54 55 55 55 55 54 51 49 45 42 41 40 39 39 39 40 43 43 43 41 36 31 30 30 30 31 33 33 33 33 31 31
53 53 53 52 51 50 49 46 43 40 39 38 37 39 40 40 39 39 39 35 30 30 30 29 29 31 33 33 32 32 30 30
51 52 50 48 48 47 47 46 42 40 39 37 39 40 39 40 42 41 32 29 29 29 29 29 29 31 32 32 30 30 30 29
49 50 49 47 46 46 44 41 38 38 38 41 41 42 42 37 31 30 29 28 28 28 29 29 29 30 32 32 30 30 31 31
46 47 47 47 45 41 38 37 39 40 40 42 41 35 32 29 28 28 28 29 29 30 30 31 32 32 33 31 31 31 30 30
42 45 46 44 41 39 39 41 42 42 41 37 35 31 28 27 26 24 25 28 28 30 31 31 32 33 32 32 31 31 30 29
43 46 44 41 40 41 41 42 41 38 33 30 28 25 24 23 24 25 27 27 30 29 29 30 31 32 31 31 31 29 28 28
45 44 42 41 41 41 41 38 33 28 27 25 25 23 23 25 26 26 26 27 30 28 28 27 27 29 30 31 31 29 28 29
44 43 41 41 40 34 29 26 25 24 23 22 23 24 26 26 26 26 27 28 29 28 27 27 28 28 30 31 31 30 29 28

GFSFLT1_sfc_30mbdewp_069.txt.gz
Dewpoint
52 52 53 53 54 56 57 59 59 58 58 59 59 60 59 58 57 56 53 50 50 49 47 46 44 41 39 38 38 38 36 36
52 53 54 54 55 55 57 57 58 57 57 57 57 57 57 57 55 52 50 49 50 49 46 45 43 41 39 40 38 38 37 37
52 54 55 55 54 55 57 57 57 57 56 56 56 55 54 54 52 50 49 49 49 47 45 43 42 40 40 40 39 37 37 38
52 53 55 56 56 56 57 57 57 57 56 55 54 53 52 51 50 49 49 48 47 46 44 43 42 40 39 40 40 38 36 38
51 52 53 55 55 56 56 57 56 56 56 55 53 52 50 49 49 49 49 49 47 45 43 43 41 40 40 40 40 39 38 34
51 50 51 54 55 55 57 57 56 56 56 55 54 53 52 51 49 48 48 47 46 43 43 42 42 41 42 42 40 39 37 32
51 50 50 53 55 56 57 56 56 56 56 55 54 53 52 49 47 47 46 45 44 43 41 42 41 40 39 38 37 36 34 34
51 50 50 52 54 55 56 56 56 56 57 56 55 54 52 50 48 47 46 44 42 41 41 40 39 37 36 34 34 34 34 32
48 49 50 52 54 55 56 56 55 56 57 56 56 55 52 50 49 47 46 44 42 41 41 41 40 40 36 34 34 33 34 36
45 47 50 52 54 55 56 56 56 56 56 57 56 55 53 50 49 47 46 44 41 43 45 43 43 37 33 34 33 33 36 36
45 48 51 53 54 55 56 56 56 56 57 56 56 54 54 51 48 45 43 42 42 45 45 44 39 33 34 34 34 34 34 35
47 51 52 53 55 55 56 56 56 55 55 55 54 52 50 47 45 43 43 44 44 45 44 39 33 33 33 34 34 34 34 34
50 52 54 54 55 55 56 55 54 53 51 50 48 46 45 45 44 44 44 44 46 42 38 34 32 32 32 33 33 33 33 33
51 53 54 54 55 55 55 53 49 45 45 45 45 45 43 43 43 44 45 43 40 36 33 32 32 32 32 33 33 34 33 33
49 52 53 53 54 53 51 47 44 43 44 44 43 42 43 44 44 41 37 34 33 32 32 32 33 32 32 33 33 33 33 32
48 50 51 50 50 49 48 45 45 45 44 43 43 43 42 39 36 33 33 33 30 29 30 32 32 32 30 31 32 33 33 33
45 49 49 47 47 46 45 45 45 45 44 42 41 40 36 32 30 30 32 29 30 31 30 31 31 28 28 29 30 30 31 31
44 47 47 46 45 44 45 44 44 43 42 39 34 29 28 30 30 29 27 28 32 31 31 31 30 30 28 28 29 29 29 29
44 44 44 44 44 44 43 40 37 34 31 28 27 29 29 28 28 30 31 29 29 29 30 30 30 28 27 27 29 29 30 30

GFSFLT1_sfc_30mbdewp_075.txt.gz
Dewpoint
52 53 53 53 53 53 55 57 57 56 57 55 54 55 58 60 61 60 60 58 57 54 52 52 48 44 42 39 40 39 39 39
51 51 51 48 50 50 50 52 56 58 58 54 52 52 58 61 60 60 60 57 56 54 52 51 46 43 41 43 43 43 41 41
49 51 51 47 48 47 49 52 56 57 54 51 49 51 58 60 59 59 58 56 55 54 51 49 45 43 43 43 42 41 41 41
45 48 49 50 48 49 50 53 56 58 52 48 50 54 56 58 58 57 57 55 55 53 50 48 45 44 43 44 44 43 41 41
44 47 49 50 50 51 52 53 56 57 58 50 51 55 55 56 56 56 54 54 53 51 49 47 47 44 43 44 44 44 43 40
44 45 46 49 50 51 52 53 52 54 57 57 52 52 52 55 56 55 54 52 51 50 48 47 47 44 44 43 44 44 42 39
42 44 45 46 51 53 53 52 51 53 58 58 56 54 53 55 56 53 53 53 50 49 47 47 47 45 45 45 45 44 39 37
42 40 44 45 47 51 53 53 53 54 58 59 58 57 56 56 55 54 53 51 49 49 48 48 47 45 44 46 43 41 40 37
43 44 43 44 47 51 53 54 54 54 55 58 58 58 57 56 55 54 54 52 51 50 49 48 46 44 44 43 43 40 39 37
37 42 45 46 47 49 53 54 53 54 55 57 58 58 57 57 56 56 54 53 50 50 49 47 46 45 45 43 39 40 36 35
36 38 43 46 49 49 54 54 52 53 54 57 58 57 58 57 57 56 55 53 52 49 49 46 47 45 45 43 40 35 35 35
37 39 41 45 49 51 53 53 51 51 54 56 57 57 57 58 57 56 56 53 48 48 47 45 46 47 47 41 36 35 33 33
37 40 41 43 48 50 52 54 51 51 53 56 57 57 56 54 52 51 50 49 48 47 46 47 49 46 39 37 36 33 32 31
37 40 43 44 47 50 52 53 52 51 55 56 55 52 51 49 49 49 48 47 47 48 47 45 43 41 37 33 32 33 32 32
34 40 43 46 48 50 51 52 53 54 55 54 52 50 49 48 48 48 47 46 45 44 44 44 42 37 32 31 32 31 29 28
29 35 42 47 50 51 52 54 55 54 53 51 50 48 48 47 46 46 45 43 43 41 41 40 36 30 31 32 30 26 24 24
29 33 40 48 52 53 54 53 51 51 49 47 47 47 46 44 43 42 42 39 38 38 38 31 33 35 28 26 26 24 23 22
37 37 44 50 53 52 50 49 50 48 48 47 45 44 42 41 38 37 36 35 34 34 33 36 34 30 27 27 28 26 23 21
43 46 48 50 51 50 49 48 47 46 44 43 42 41 38 35 33 32 33 34 36 36 34 31 30 27 28 28 28 27 25 25

GFSFLT1_sfc_30mbdewp_078.txt.gz
Dewpoint
54 54 54 53 54 54 54 54 54 53 52 50 51 55 55 56 57 59 59 61 61 58 56 53 52 48 46 44 42 42 43 42
53 53 54 54 54 54 53 53 54 54 56 54 54 53 57 58 57 58 60 60 59 58 55 54 53 48 45 46 46 43 42 43
52 52 53 53 53 54 55 55 56 56 57 55 53 54 58 59 59 59 60 59 59 57 55 54 52 48 47 46 46 45 45 44
49 49 52 52 53 53 54 56 56 57 57 56 52 56 57 59 59 59 59 58 58 57 56 53 50 49 47 48 46 45 45 45
49 49 50 49 50 52 51 51 56 58 58 52 50 51 55 57 58 58 58 58 56 56 54 52 49 49 47 48 47 47 45 43
46 48 51 51 50 50 50 51 55 57 58 57 51 55 55 57 58 58 56 56 55 57 55 52 50 49 49 47 48 45 45 43
44 47 49 50 52 52 52 54 55 57 58 58 56 56 56 56 57 57 56 55 55 54 53 51 51 49 49 49 48 47 43 39
44 45 46 49 50 52 54 54 53 55 58 58 58 57 55 56 57 56 54 54 54 53 52 51 50 49 49 48 47 45 41 40
43 45 45 46 49 52 53 53 53 53 58 59 58 59 57 57 57 56 54 54 53 51 52 51 50 49 48 46 45 44 41 41
42 43 46 46 47 51 54 54 53 53 57 59 59 59 59 58 58 57 56 55 54 53 52 51 50 47 46 46 43 40 41 42
35 42 45 46 48 49 53 54 53 54 55 57 59 58 59 59 58 57 56 56 54 53 52 49 47 46 45 43 42 43 44 43
36 37 40 47 48 49 53 54 54 54 55 56 58 59 59 59 58 57 56 54 52 49 48 47 46 46 46 45 45 44 42 38
34 38 39 42 49 50 52 54 55 54 54 56 59 59 58 58 56 54 52 50 49 48 48 47 47 48 49 46 43 40 39 37
33 38 39 41 44 51 52 54 55 54 53 58 58 57 57 55 53 51 50 49 49 48 47 47 47 46 45 44 41 40 37 36
28 36 39 42 45 48 51 55 55 56 57 57 55 54 52 51 50 49 48 48 48 47 47 46 45 45 43 42 39 35 35 32
24 28 40 44 46 50 52 57 56 56 55 53 50 49 49 48 48 48 48 47 46 45 45 45 44 42 41 37 34 31 26 25
30 29 32 46 50 52 55 55 53 52 50 48 49 48 48 48 47 46 44 44 44 44 43 42 40 38 30 27 28 26 26 26
35 36 36 52 54 53 51 50 50 48 48 48 48 46 45 44 43 43 42 41 40 39 38 38 37 37 28 26 26 28 26 26
39 41 51 52 51 50 50 50 48 47 47 46 45 44 42 41 40 40 38 37 36 36 38 36 32 31 29 29 29 29 28 28

GFSFLT1_sfc_30mbdewp_081.txt.gz
Dewpoint
54 54 54 54 54 53 53 52 52 53 52 50 49 49 52 55 54 56 52 54 57 59 58 55 52 49 46 43 42 44 41 41
53 52 53 53 54 53 53 53 53 52 50 48 46 47 54 54 55 56 56 56 57 58 57 54 51 48 44 44 43 41 42 43
52 53 52 52 52 53 53 53 53 51 50 48 49 51 55 56 57 57 56 57 58 59 54 53 52 48 46 45 43 43 44 43
52 52 53 52 52 52 52 52 52 52 52 52 54 54 56 57 57 57 59 59 60 59 55 53 52 50 45 45 45 44 43 44
52 52 53 53 52 52 50 51 51 52 55 55 55 52 54 56 57 58 59 59 58 58 56 54 52 49 45 46 47 46 45 43
50 52 52 53 51 51 51 54 55 55 56 56 56 52 55 57 58 57 58 58 57 57 56 54 51 48 47 47 47 47 45 42
48 49 51 52 50 52 53 53 55 56 57 57 57 52 55 56 57 57 57 56 56 56 56 54 50 49 48 47 47 45 44 42
48 49 49 50 50 51 51 50 51 56 57 57 57 54 54 56 57 57 55 55 55 55 55 54 51 50 50 49 47 44 41 39
47 48 49 50 49 50 49 49 50 54 57 57 58 57 56 56 57 57 56 55 55 54 54 53 51 50 48 47 46 44 42 41
45 46 48 50 50 51 49 49 51 53 56 57 58 58 57 57 57 57 56 55 54 53 53 52 51 48 47 46 46 44 42 42
44 45 47 48 50 50 52 53 53 53 53 57 58 58 58 58 58 57 56 55 54 53 53 50 47 47 47 46 45 44 42 42
39 45 45 47 49 50 51 53 52 53 53 58 58 59 58 59 58 57 56 56 54 52 48 47 46 47 48 46 45 45 45 45
35 36 43 46 48 49 50 54 54 54 54 58 59 59 59 59 58 57 55 53 50 48 48 48 48 47 47 46 46 46 44 42
35 36 38 47 49 49 50 54 54 54 55 56 58 58 58 57 55 54 52 50 49 49 48 47 47 47 48 47 45 44 43 41
32 37 38 40 49 51 52 54 55 56 56 57 57 57 56 54 52 51 50 49 49 48 48 48 47 47 46 45 44 42 41 39
27 38 39 41 46 53 54 56 56 56 56 55 54 53 52 51 50 50 49 49 48 48 47 46 46 45 44 43 42 39 31 26
28 32 41 45 52 55 56 55 53 53 51 50 50 49 49 49 49 48 47 46 46 46 46 46 45 43 41 39 33 27 26 25
34 39 49 53 53 53 52 50 50 49 49 49 48 48 47 46 45 45 45 45 45 44 44 43 42 41 33 27 28 27 26 25
42 52 52 51 51 50 49 49 49 48 47 47 46 45 45 45 44 44 43 42 42 42 40 39 38 33 29 28 28 28 28 30

GFSFLT1_sfc_30mbdewp_084.txt.gz
Dewpoint
54 54 55 54 54 54 54 54 54 54 54 54 53 52 52 53 54 55 55 55 59 57 56 55 52 49 46 42 40 42 40 40
54 54 54 54 53 53 53 53 54 53 52 51 51 50 50 52 54 53 56 54 57 58 57 55 51 47 45 42 42 41 42 43
52 53 53 53 53 53 52 52 52 50 50 49 48 47 51 53 55 55 56 56 56 58 57 55 52 49 45 44 42 42 42 43
51 51 52 52 52 52 52 51 51 50 49 48 49 49 53 53 54 55 55 56 57 58 56 55 52 49 46 45 43 42 42 43
51 51 51 52 52 53 52 52 51 50 50 48 48 46 48 54 54 55 56 57 57 58 57 55 53 50 46 45 45 44 44 42
50 50 52 52 52 52 52 52 52 50 51 50 49 52 54 54 55 56 56 57 58 59 58 55 53 51 47 46 46 45 45 44
51 51 52 52 51 51 52 51 51 51 52 52 52 52 54 55 56 56 56 57 58 57 57 55 53 51 49 47 47 46 45 44
50 51 52 52 51 50 51 50 50 50 51 52 54 55 54 54 55 56 56 56 56 56 56 55 53 51 49 48 48 46 45 41
49 50 51 51 50 49 49 49 50 52 54 54 55 56 55 55 55 56 56 56 56 56 56 55 53 51 50 49 47 45 45 45
48 49 50 51 51 47 48 49 51 52 54 56 57 57 57 55 56 57 57 57 57 55 55 54 53 50 49 47 46 46 46 45
48 48 49 50 51 51 49 50 51 51 52 56 57 57 57 56 56 57 57 57 56 55 54 52 49 48 47 47 46 46 46 46
45 47 49 49 50 51 51 52 51 50 50 54 56 57 58 57 57 57 57 56 55 54 53 50 48 47 47 47 47 47 46 44
44 45 46 48 50 52 51 51 51 51 52 52 55 57 58 58 57 57 56 55 55 52 51 49 48 47 48 47 46 45 44 44
41 44 45 45 47 50 51 52 53 54 54 54 56 58 58 58 57 56 56 55 53 51 50 48 47 47 47 47 46 46 46 45
35 38 42 45 46 48 50 51 53 54 54 55 55 58 58 58 56 56 56 53 51 50 50 49 48 48 48 47 46 46 45 44
28 35 41 46 47 49 50 51 54 55 54 55 56 56 57 56 55 54 52 51 50 49 49 48 48 48 47 47 46 44 42 39
28 31 39 43 48 50 53 54 55 55 55 54 53 52 52 52 50 50 50 49 49 48 47 47 46 46 46 45 43 40 38 30
32 36 42 49 53 54 53 53 53 53 52 50 50 49 48 48 48 48 47 47 47 46 46 46 45 43 44 42 39 31 27 25
48 50 51 52 51 51 51 51 50 49 49 48 49 48 47 46 46 46 45 45 45 45 45 44 44 39 37 34 30 28 30 30

GFSFLT1_sfc_30mbdewp_087.txt.gz
Dewpoint
54 54 55 55 55 54 54 54 54 54 54 54 54 54 55 55 56 57 57 58 57 55 54 53 53 52 49 45 41 40 38 37
54 54 54 54 54 54 54 53 54 53 53 52 52 53 53 53 54 56 55 57 58 56 55 54 52 51 49 44 41 40 40 41
53 54 54 53 53 53 53 53 53 52 51 48 49 51 52 52 54 54 56 54 57 57 56 54 52 50 47 43 41 41 41 42
51 52 53 53 53 53 52 53 52 52 51 49 48 50 51 51 52 54 54 55 55 58 58 56 54 50 47 44 43 41 40 43
50 50 50 51 52 52 52 52 52 50 49 48 48 46 46 48 49 54 53 55 55 56 57 57 54 51 48 45 44 43 42 40
50 51 51 51 51 52 52 51 51 50 50 48 47 46 46 49 53 53 54 55 56 57 58 56 54 52 49 47 45 44 44 42
50 51 51 51 52 52 52 51 51 50 50 49 48 48 49 50 52 53 54 55 56 57 58 56 55 53 50 48 48 47 45 44
50 50 50 52 51 51 52 51 51 50 50 49 49 49 50 51 51 53 54 54 55 55 56 56 55 54 52 51 49 47 47 44
49 49 50 52 51 51 51 51 50 50 50 49 49 50 50 52 53 54 55 55 54 55 56 57 56 53 52 50 49 47 46 44
47 48 50 51 52 51 50 50 50 50 50 50 49 50 51 52 54 55 55 56 56 56 56 56 55 53 51 49 47 46 46 46
47 47 50 51 52 52 51 50 49 49 50 50 50 51 52 53 54 55 55 56 56 56 55 55 54 52 50 49 47 47 46 46
48 48 48 50 51 51 50 50 49 48 49 51 52 53 55 56 56 55 56 56 56 55 55 55 52 51 50 48 47 47 46 46
46 48 48 49 50 51 50 49 48 49 50 51 52 55 56 57 57 57 56 56 56 55 54 53 52 50 49 48 47 47 47 46
44 46 48 49 49 50 51 51 49 50 51 52 52 52 55 56 57 56 56 56 55 54 54 53 51 50 49 49 47 47 47 46
42 44 45 47 49 50 50 51 52 52 52 52 52 52 55 56 57 56 56 55 56 54 53 52 51 50 49 48 47 46 46 45
34 40 43 45 46 48 50 52 52 52 52 52 52 53 56 56 57 56 56 56 56 53 52 51 50 49 48 47 47 46 46 45
29 35 38 41 45 46 48 50 52 53 53 53 54 54 56 56 55 55 54 52 52 51 51 50 48 48 47 47 46 45 44 42
28 29 34 39 46 49 50 51 53 53 53 52 52 52 52 51 51 51 50 50 50 49 48 48 48 47 45 44 43 41 39 36
37 44 47 49 51 52 52 52 52 52 51 50 50 50 50 49 49 49 48 47 47 46 46 46 44 43 43 41 39 36 32 30

GFSFLT1_sfc_30mbdewp_093.txt.gz
Dewpoint
52 55 56 55 56 55 56 56 56 56 57 58 59 59 59 59 60 59 59 58 56 54 53 53 52 48 45 43 42 41 39 38
52 54 55 55 55 55 55 55 56 56 55 56 56 56 57 58 58 58 58 58 56 55 53 54 53 50 46 45 44 42 40 41
51 52 54 54 54 54 55 54 55 55 55 56 56 56 57 57 57 58 57 57 56 55 53 53 53 52 49 46 44 44 43 42
50 52 53 54 53 54 54 54 54 55 55 55 55 54 54 55 56 56 56 56 55 55 54 54 54 53 51 49 47 44 42 42
49 50 52 52 54 54 54 54 54 54 53 53 54 53 53 53 53 54 55 56 57 56 55 54 54 54 53 52 50 48 46 41
49 49 51 53 54 53 53 54 53 53 52 53 52 51 52 50 53 54 54 54 55 56 57 56 55 54 54 54 51 49 49 47
49 49 51 52 53 53 53 53 53 52 52 52 51 51 51 48 50 51 53 53 54 55 55 56 57 56 55 54 53 52 51 50
49 49 49 50 51 52 52 53 52 51 51 50 50 51 50 49 48 49 51 51 52 53 55 56 56 57 56 56 55 53 52 51
48 49 49 50 50 51 51 51 51 51 51 50 50 49 49 50 49 48 50 50 51 52 54 54 55 56 56 56 55 54 54 52
48 48 49 50 51 50 51 51 51 52 51 51 50 50 49 48 48 50 50 50 51 53 54 54 54 55 55 55 55 55 54 53
47 48 49 50 51 51 51 51 50 51 52 51 51 50 50 49 50 50 50 51 52 52 53 54 54 55 55 55 55 55 54 53
46 48 49 50 51 51 52 52 52 52 51 51 51 51 50 50 50 50 50 51 52 52 53 54 54 55 55 55 55 54 52 51
45 47 48 49 50 51 51 52 52 52 51 51 51 52 51 51 51 51 51 51 53 53 53 53 54 55 55 53 53 53 51 51
46 47 47 48 49 50 51 51 51 51 51 51 51 51 51 51 51 51 51 52 52 52 53 53 54 55 54 55 54 54 52 51
43 46 47 48 49 50 51 51 51 51 51 50 50 50 51 50 51 51 52 52 52 53 54 54 55 56 56 55 54 53 52 52
37 42 45 48 49 50 51 51 52 51 51 51 50 50 51 51 52 52 53 54 55 55 56 56 56 56 55 54 53 53 52 51
29 35 43 46 48 49 50 51 51 51 51 50 50 50 51 52 53 53 54 55 56 56 56 56 56 55 54 52 52 51 51 49
29 29 36 44 47 49 50 51 52 52 51 50 50 50 50 51 52 53 53 54 55 56 55 55 53 51 50 50 47 47 46 42
30 31 38 46 49 49 50 51 52 52 52 52 52 52 52 53 53 54 53 51 50 48 46 45 42 38 40 43 41 38 36 35

GFSFLT1_sfc_30mbdewp_096.txt.gz
Dewpoint
51 52 55 56 57 57 57 58 58 58 59 59 60 60 61 61 61 61 61 58 56 54 53 53 50 47 47 46 45 45 44 42
50 52 55 56 56 56 56 56 57 58 57 57 57 57 59 60 60 60 60 58 55 55 52 53 50 48 47 48 47 46 44 43
49 51 54 55 55 56 56 56 56 56 57 57 57 58 58 59 59 59 59 58 55 54 52 53 51 49 49 49 47 46 46 44
48 51 53 55 54 54 55 55 56 56 57 56 56 57 57 57 58 58 58 58 56 54 51 52 52 51 50 50 48 48 46 44
48 49 51 54 54 55 55 54 56 56 56 55 55 54 52 55 57 56 58 58 57 56 54 52 53 53 52 52 50 49 47 45
47 48 50 53 53 54 54 54 55 55 55 55 54 53 53 56 55 55 56 57 57 56 56 55 54 53 54 53 52 51 49 48
47 48 49 52 54 54 54 54 54 54 54 53 53 52 52 54 54 54 55 56 55 55 55 55 55 54 53 54 54 54 53 51
47 47 47 50 52 53 54 53 53 54 54 53 53 53 52 52 53 53 51 51 53 54 55 56 55 54 53 54 55 55 55 54
46 47 47 49 51 52 53 53 53 53 52 52 51 51 52 52 51 50 52 49 49 51 52 52 54 53 54 54 55 55 55 55
46 47 48 47 50 52 52 52 53 53 53 52 51 51 51 51 51 50 49 49 50 51 52 53 53 53 53 54 54 54 55 55
44 46 48 48 49 51 52 51 51 52 53 52 51 50 50 50 50 50 50 49 49 49 51 52 52 52 52 53 53 53 53 54
43 46 48 49 49 50 52 52 51 51 52 53 52 52 52 51 50 50 50 50 50 50 50 51 51 51 51 52 52 52 52 53
42 45 47 48 49 50 51 52 51 51 51 51 52 52 52 51 51 50 50 49 50 51 51 50 50 50 51 52 53 53 53 53
41 44 46 47 48 49 50 51 52 52 51 51 51 52 52 52 52 52 51 52 51 51 51 51 51 51 51 52 54 54 54 54
41 43 44 46 47 48 49 49 51 51 51 51 51 51 52 52 52 52 52 52 51 51 51 51 51 51 51 52 54 54 55 56
35 40 43 44 46 48 49 49 50 50 51 51 50 51 51 52 52 52 52 52 52 51 51 51 52 53 54 54 55 56 55 54
29 33 40 44 46 47 49 50 51 51 50 50 51 51 51 51 51 51 51 52 52 52 52 53 54 56 55 55 55 55 53 51
31 31 34 41 46 48 48 50 52 52 52 51 51 51 51 51 51 52 52 53 54 54 55 54 48 42 42 49 48 46 42 39
30 33 35 39 44 48 49 50 52 52 51 51 51 51 51 51 51 52 53 51 48 45 41 39 37 35 37 38 37 35 33 32

GFSFLT1_sfc_30mbdewp_099.txt.gz
Dewpoint
49 50 53 55 57 57 58 58 58 59 59 60 60 60 61 61 63 62 61 59 58 55 54 54 52 52 52 50 49 46 45 44
47 50 53 54 57 57 57 58 58 58 58 58 58 58 59 61 62 61 60 59 57 56 51 53 52 50 50 50 49 49 47 46
47 50 52 54 55 56 56 57 57 58 57 58 58 58 60 60 61 60 59 58 57 57 55 54 52 50 51 51 50 48 47 46
46 49 51 54 54 55 56 56 57 57 57 58 58 58 58 58 59 59 59 57 56 54 55 55 53 52 51 52 52 49 48 47
45 48 50 53 54 55 55 56 55 57 57 56 57 56 55 57 57 58 58 58 56 56 55 54 54 53 53 53 52 51 49 48
43 47 49 52 54 55 55 55 55 56 57 56 56 55 56 57 57 57 58 58 57 55 54 54 55 53 53 54 53 53 52 50
43 47 47 50 54 54 54 55 54 56 56 56 55 54 54 56 56 56 56 57 58 57 55 55 55 55 55 56 55 53 53 52
43 46 47 49 53 53 54 54 54 55 55 55 55 54 54 55 56 55 54 54 56 56 56 56 56 55 55 56 55 55 55 55
43 45 46 48 52 53 53 53 53 54 54 55 54 54 52 52 54 55 54 53 55 55 54 53 53 54 55 55 56 53 53 56
42 44 46 47 50 52 53 53 52 54 54 54 54 53 52 50 53 54 54 54 54 55 55 53 53 53 54 53 52 52 53 55
41 43 46 47 49 51 52 52 51 52 54 53 53 52 53 52 52 52 54 54 51 52 54 53 53 52 53 53 53 54 54 55
40 43 46 47 49 50 52 51 50 51 52 53 54 52 51 52 52 53 52 52 52 51 52 52 52 52 53 53 54 54 53 53
38 42 45 47 48 49 51 51 49 50 51 52 53 53 52 51 51 52 53 52 52 51 51 50 51 51 52 52 53 52 52 53
39 42 44 46 48 48 49 51 50 49 50 51 52 53 52 52 52 53 53 52 52 52 51 51 51 51 52 53 53 53 53 53
38 40 43 45 47 48 49 50 50 50 49 50 51 51 52 52 52 53 53 53 52 51 52 52 52 52 51 51 51 52 53 53
34 38 41 44 46 48 49 50 51 50 50 50 50 51 52 52 52 52 53 53 52 52 52 51 51 51 51 51 51 52 53 54
28 33 38 41 44 46 48 49 51 51 51 51 50 51 51 52 52 53 52 52 52 52 51 51 52 48 43 48 52 53 47 44
27 29 33 39 43 45 46 48 50 51 50 51 51 51 51 51 52 52 52 52 52 47 45 42 38 37 38 40 39 37 35 34
29 30 33 35 42 45 47 49 50 51 51 50 50 51 51 51 51 50 46 43 40 38 36 35 34 34 34 34 33 32 31 30

GFSFLT1_sfc_30mbdewp_102.txt.gz
Dewpoint
48 49 52 55 57 58 58 58 59 59 60 60 61 62 62 63 61 61 61 61 59 57 56 57 58 57 56 55 52 50 47 46
49 50 53 55 57 57 57 58 58 58 58 58 59 58 60 62 62 60 60 60 58 56 54 54 54 56 55 54 52 48 47 49
49 51 53 56 56 56 56 58 58 58 58 58 58 58 59 60 62 60 60 59 58 54 54 54 53 53 54 52 50 49 50 49
48 51 53 55 55 55 56 56 58 58 58 58 58 59 59 59 60 60 59 58 57 55 54 55 53 52 53 51 52 50 50 49
47 50 52 55 55 55 55 56 57 57 57 57 57 57 56 58 59 59 59 58 57 57 57 56 55 54 53 53 53 52 50 47
46 48 51 53 55 55 55 56 57 56 57 57 57 56 57 58 58 57 57 57 56 56 57 56 55 54 54 54 54 52 53 50
44 48 50 52 55 55 55 55 55 57 57 57 56 56 56 56 56 56 56 56 56 56 55 56 56 55 55 55 54 53 54 53
42 47 48 50 55 54 55 54 54 56 56 57 56 56 56 56 56 56 55 55 55 55 55 57 57 56 55 54 56 55 55 54
42 46 48 50 54 54 54 54 53 55 56 56 56 55 56 56 56 56 55 55 54 55 55 56 56 54 54 56 56 56 56 56
42 46 48 50 53 54 54 54 52 54 55 55 55 54 54 55 55 55 55 56 57 56 55 55 56 55 55 55 54 54 55 54
42 44 48 50 53 54 54 54 53 53 55 55 55 54 53 53 55 55 54 55 55 56 55 54 54 53 54 54 54 53 53 54
41 44 48 48 52 53 54 53 52 54 55 55 54 54 54 52 53 55 55 55 55 55 55 55 54 53 54 53 53 52 52 53
40 43 47 48 50 52 53 53 52 53 54 54 53 53 54 53 53 51 52 55 54 53 55 54 53 53 53 53 53 53 54 54
36 42 46 47 50 51 52 53 51 52 53 54 54 53 53 53 53 54 54 54 54 53 53 53 52 52 52 53 53 53 53 53
37 40 44 47 49 50 51 52 51 52 52 53 54 54 54 53 53 53 53 54 53 53 53 52 52 52 52 52 52 53 53 54
31 39 42 46 48 49 50 52 51 51 51 52 53 54 54 54 54 54 54 54 53 53 53 53 53 53 50 49 53 53 51 46
25 33 40 43 47 49 50 51 51 51 50 51 52 54 54 54 55 55 55 54 54 54 53 49 43 40 40 48 48 43 40 39
25 29 33 42 45 48 50 51 53 52 51 51 51 52 53 54 54 54 54 52 46 42 39 38 36 35 35 36 36 35 34 33
28 34 35 37 44 47 49 50 52 53 52 52 52 52 52 53 52 45 42 39 37 35 34 34 33 33 33 33 32 31 30 30

GFSFLT1_sfc_30mbdewp_105.txt.gz
Dewpoint
48 51 55 57 57 58 58 58 59 60 59 60 61 62 62 61 61 62 63 62 60 59 59 58 59 55 57 57 54 51 49 48
49 52 55 57 57 58 58 58 59 59 58 57 57 60 61 61 60 61 61 61 60 59 59 59 59 57 58 56 52 49 47 45
50 54 55 57 57 56 56 58 58 58 57 58 58 58 59 62 61 61 61 60 59 58 57 57 58 58 57 54 50 49 47 49
51 53 55 56 55 55 55 57 57 58 58 58 57 58 59 58 61 60 60 59 59 56 56 55 57 57 55 52 50 49 47 50
51 53 55 55 55 55 55 57 57 58 58 57 57 56 55 58 57 59 59 59 59 56 56 54 55 57 55 53 51 50 49 48
51 52 55 55 55 55 55 56 57 57 57 57 57 57 57 58 58 59 59 59 58 56 56 55 54 55 54 53 53 52 50 49
50 52 54 54 55 55 55 56 57 56 56 57 57 56 57 57 58 57 58 58 57 55 56 56 55 55 54 54 54 54 54 52
50 52 53 54 54 54 55 56 56 56 56 57 56 57 56 56 57 57 56 56 56 56 56 56 56 57 56 55 54 53 54 54
49 50 52 54 54 54 55 54 54 56 56 56 56 56 56 56 56 56 56 55 56 56 55 56 57 57 57 56 55 55 55 54
49 49 52 54 54 54 54 54 54 55 55 56 55 56 56 56 56 55 55 55 56 55 54 54 56 57 56 55 55 54 55 55
48 48 51 54 54 54 54 54 53 55 55 55 55 55 56 56 56 55 55 55 55 55 54 53 55 56 55 55 54 54 53 53
47 48 50 53 54 54 54 54 52 54 55 55 55 54 55 56 55 55 55 55 54 55 54 53 54 55 55 54 53 54 54 54
46 48 50 53 53 53 54 53 53 53 55 55 54 54 53 53 55 55 55 55 56 55 55 54 54 53 53 53 53 53 53 52
42 48 50 52 53 53 53 53 53 53 54 55 54 54 54 52 53 54 55 55 54 56 55 54 54 53 53 53 53 53 52 53
36 47 48 51 52 54 53 53 53 54 54 53 53 54 54 53 53 52 52 55 55 54 55 55 55 54 54 53 53 53 53 50
27 38 45 50 51 52 53 53 53 54 54 54 53 54 54 54 54 54 54 54 54 54 54 54 54 52 48 51 53 52 47 41
24 28 39 46 50 51 52 52 52 53 53 54 54 54 54 54 53 53 54 54 54 52 46 45 42 39 41 47 45 42 38 36
38 26 26 41 51 50 52 52 52 52 52 53 54 54 54 54 54 54 53 48 43 40 38 37 35 35 36 36 36 35 34 33
48 47 46 40 48 50 51 52 52 52 51 52 54 54 54 54 51 44 41 39 37 35 34 33 33 33 33 33 33 31 30 30

GFSFLT1_sfc_30mbdewp_108.txt.gz
Dewpoint
46 53 56 57 58 58 58 59 60 59 60 62 62 60 61 62 62 62 63 62 61 59 55 54 53 53 49 53 53 53 51 50
50 55 56 57 57 57 58 58 59 58 58 59 60 59 60 61 62 62 62 62 61 60 56 56 54 53 50 54 54 51 49 49
52 55 56 56 57 57 57 57 59 58 57 57 58 60 60 60 61 62 62 62 61 60 58 56 55 53 54 55 53 50 48 47
52 55 56 56 56 56 57 58 58 58 57 57 57 58 59 60 60 60 61 61 60 60 59 57 57 56 56 54 52 50 47 47
52 54 55 56 56 56 56 58 57 57 58 57 56 55 56 57 60 59 61 60 60 59 59 58 58 57 56 55 52 50 47 45
51 53 54 55 55 55 56 57 57 58 58 57 56 55 56 56 57 59 59 60 59 58 57 58 58 58 56 54 52 51 49 49
50 53 55 54 55 55 56 57 57 57 57 57 57 56 57 56 57 57 58 59 59 57 57 57 58 57 55 55 55 54 53 51
51 53 54 54 54 55 55 56 56 56 56 57 57 57 57 57 57 58 57 58 58 57 57 57 57 58 58 57 56 55 55 54
51 53 53 53 54 54 55 56 56 56 56 57 57 56 56 56 58 58 57 57 57 57 57 57 57 57 57 57 56 56 55 55
51 53 53 53 53 54 55 55 55 55 56 57 56 56 56 56 56 57 57 57 58 57 57 57 57 57 56 56 55 55 54 54
51 52 53 54 54 54 55 54 55 55 56 56 56 56 56 56 55 56 56 56 56 56 56 56 57 57 56 56 55 55 54 54
49 50 54 54 54 54 54 53 53 54 54 56 55 56 56 56 55 55 55 56 56 55 55 55 55 56 56 56 55 54 54 53
45 49 53 53 53 54 54 53 53 53 53 55 55 55 56 55 55 55 55 54 55 55 54 54 54 55 55 55 54 54 53 52
42 50 51 53 53 53 53 53 52 53 55 54 55 54 54 55 55 55 55 54 54 54 54 53 53 53 54 54 54 53 53 53
39 49 52 53 53 53 53 53 53 53 54 55 54 54 53 54 55 55 55 55 55 54 54 53 53 54 53 53 53 53 53 49
41 47 50 53 53 53 53 53 53 53 53 53 54 54 54 52 54 54 54 55 55 55 55 54 54 53 52 53 53 53 46 39
48 44 49 52 53 54 54 53 53 53 53 53 53 54 54 53 52 53 52 54 55 52 52 46 43 42 45 48 47 42 38 36
47 47 46 47 52 54 54 54 54 54 54 54 53 54 54 53 53 54 52 47 43 41 39 37 36 36 38 38 37 36 34 33
47 46 45 44 45 53 54 54 54 54 54 54 54 54 53 54 51 45 42 39 38 36 34 33 33 33 33 33 32 31 30 30

GFSFLT1_sfc_30mbdewp_111.txt.gz
Dewpoint
30 41 54 58 59 59 59 60 60 60 61 61 60 59 60 61 61 60 60 62 60 59 56 54 53 49 48 49 50 51 50 51
33 51 56 58 58 58 58 59 59 59 59 59 58 58 60 60 61 60 60 61 60 58 55 54 51 47 47 50 51 49 50 50
43 53 56 56 57 57 58 58 58 58 59 59 59 59 60 61 61 62 61 61 60 58 54 54 51 47 48 51 51 51 49 49
38 54 55 56 56 56 57 58 58 57 57 58 58 59 60 59 60 61 62 62 61 58 55 54 51 50 48 52 52 51 48 48
42 54 55 55 56 56 57 57 58 57 57 57 58 57 57 58 59 60 61 62 61 61 57 55 52 52 48 52 53 52 50 47
44 53 55 55 56 56 56 57 57 57 57 56 56 56 56 58 59 59 60 61 61 61 59 56 54 52 54 52 54 52 49 48
39 50 55 55 55 55 56 56 56 57 57 56 55 54 55 55 57 58 59 60 60 60 60 58 57 56 56 54 54 52 50 48
39 47 54 54 54 55 56 56 55 56 57 56 56 55 56 55 55 56 57 59 59 59 59 59 59 58 57 55 54 53 52 50
45 48 53 54 54 54 55 56 56 55 56 56 56 56 56 56 56 56 57 57 59 58 58 58 59 58 56 56 55 55 55 54
43 51 53 54 54 54 55 55 55 55 55 56 56 56 56 57 57 58 58 59 58 58 58 58 58 58 57 57 56 56 56 56
42 53 53 54 54 54 55 55 55 55 55 56 56 56 56 56 57 57 57 58 58 57 57 57 58 58 57 57 56 56 55 56
43 45 53 53 54 54 54 55 55 55 55 56 56 56 56 56 56 56 56 57 57 57 57 56 56 56 57 56 56 55 55 54
41 40 53 53 54 54 54 54 54 54 55 55 55 56 56 55 55 55 56 56 56 56 56 56 56 56 55 55 55 55 55 54
42 41 53 54 54 54 54 53 53 54 54 54 55 55 56 55 55 55 55 55 55 55 55 55 55 55 55 55 55 54 54 54
46 48 53 54 54 54 53 53 53 53 53 53 54 55 55 55 55 55 54 55 55 54 54 55 55 55 55 55 54 54 52 47
47 47 52 54 54 54 54 53 53 53 54 53 52 54 54 55 55 55 55 54 54 54 54 53 53 53 53 54 53 52 45 39
46 46 46 47 50 54 54 53 53 53 54 54 53 53 53 54 54 54 55 55 54 54 52 50 49 47 47 51 49 44 39 36
46 45 45 45 45 47 54 54 54 53 53 53 54 54 53 52 53 53 53 50 47 45 43 42 41 40 42 42 40 37 35 33
44 43 43 43 43 46 50 55 54 54 53 53 53 54 53 53 52 48 45 42 40 38 36 35 35 35 36 35 33 32 31 31

GFSFLT1_sfc_30mbdewp_114.txt.gz
Dewpoint
27 29 32 40 54 59 59 60 60 59 59 59 60 58 59 60 61 60 60 61 61 61 60 57 55 52 51 52 49 50 51 52
28 33 46 55 58 59 59 59 59 59 59 59 59 58 59 60 60 61 60 60 60 60 57 56 54 51 50 50 49 49 50 52
25 32 52 56 57 58 59 59 58 59 59 59 58 58 59 60 60 60 60 61 59 58 57 55 52 49 49 49 49 49 50 51
25 30 49 55 57 58 58 58 58 59 58 58 59 59 60 59 60 59 60 60 59 57 56 55 52 48 47 48 49 48 48 49
31 30 47 54 56 57 57 58 58 57 58 58 58 57 57 59 59 60 60 61 59 57 55 54 51 47 47 48 50 49 49 48
40 40 48 54 56 56 57 57 57 57 57 58 57 57 57 58 60 60 60 60 60 58 56 55 52 50 47 48 51 50 50 49
41 41 47 54 56 56 56 56 57 57 57 56 57 56 57 58 58 58 59 60 60 60 57 56 53 52 50 50 53 53 51 50
41 42 48 55 55 55 56 56 56 56 56 56 55 55 56 57 58 58 59 59 59 60 59 57 56 53 54 51 54 53 51 50
42 44 45 53 54 54 55 55 56 56 56 56 55 55 55 55 56 57 58 59 59 60 60 58 57 54 56 54 54 53 52 51
42 43 43 53 54 54 55 55 55 55 56 56 56 56 56 55 56 56 56 57 58 60 60 60 58 57 57 55 54 53 53 53
42 42 43 44 54 54 55 55 54 55 55 56 56 56 56 56 57 57 57 58 58 58 59 60 59 58 57 56 55 55 54 54
44 43 44 45 54 54 54 55 54 54 55 55 56 56 56 56 56 56 57 58 58 58 58 58 58 57 57 56 55 55 54 54
46 47 48 51 54 54 54 55 54 54 54 55 56 56 56 56 56 56 57 57 57 57 57 58 57 57 57 56 55 55 55 54
43 48 48 53 54 54 54 54 53 53 55 55 55 55 55 55 55 56 56 56 56 56 56 56 57 57 57 56 56 55 55 55
44 47 47 49 54 54 53 54 54 54 54 55 54 55 55 55 55 55 55 55 55 55 55 55 55 56 56 56 55 55 51 48
42 47 46 46 48 54 54 54 53 53 54 53 53 55 56 55 55 55 55 55 55 55 55 55 55 55 55 55 53 48 43 39
44 47 46 45 45 46 54 54 53 54 53 53 52 54 55 55 54 54 54 54 54 54 53 52 51 51 53 52 47 42 39 36
45 45 44 44 44 45 46 54 53 53 53 53 52 54 53 54 54 54 54 50 49 47 46 46 45 45 47 45 41 38 36 34
42 42 41 41 43 44 46 48 54 53 53 53 53 53 53 53 53 48 45 43 42 40 39 38 37 36 38 37 35 34 33 32

GFSFLT1_sfc_30mbdewp_117.txt.gz
Dewpoint
24 27 30 33 36 42 54 59 60 61 61 60 60 60 59 58 59 60 61 62 62 61 61 60 58 57 56 54 53 52 52 52
27 30 33 38 51 54 57 59 60 60 60 59 58 57 57 58 60 60 60 61 61 62 61 59 58 56 55 55 53 52 52 53
33 37 37 44 52 57 58 59 59 60 60 59 59 58 59 58 60 60 61 61 60 61 61 58 57 56 55 53 52 51 52 53
40 42 43 47 52 57 58 59 59 60 60 60 59 59 59 59 60 60 60 60 60 60 59 58 56 54 53 53 52 51 50 52
41 42 42 47 50 57 58 59 59 59 59 58 58 57 56 58 60 59 60 59 58 58 58 57 54 53 52 53 52 51 51 51
41 43 44 48 53 56 58 59 58 58 59 58 58 57 57 59 60 59 59 59 58 57 57 56 53 52 51 51 52 51 51 51
42 43 43 46 56 57 58 58 57 57 58 58 57 57 57 58 59 59 58 59 58 58 57 55 54 51 50 50 51 52 52 52
40 42 43 44 52 55 56 57 56 57 57 57 57 57 58 57 58 59 58 58 59 58 57 56 54 53 51 50 51 52 52 52
40 42 43 44 46 54 55 55 55 56 57 57 58 58 58 58 59 59 58 59 59 59 58 57 56 54 51 51 52 52 52 53
42 44 45 48 47 48 54 55 55 56 56 57 57 57 56 56 57 58 59 59 59 60 59 58 57 55 55 52 52 52 53 53
43 46 47 48 52 50 55 55 55 56 56 57 57 57 56 56 56 56 56 57 58 60 60 59 58 56 55 53 52 53 53 53
42 44 46 46 50 54 55 55 55 56 56 56 56 56 56 56 56 57 57 57 58 58 58 59 58 57 56 55 53 53 52 53
42 43 43 45 45 53 55 55 55 55 55 56 55 56 56 55 56 56 57 58 58 58 58 58 58 58 57 56 54 53 52 53
41 41 43 45 45 47 55 55 54 54 55 55 55 55 55 55 56 56 57 57 57 57 57 57 57 58 57 56 55 54 54 53
41 42 44 46 46 46 49 55 55 54 55 54 54 55 55 55 56 56 56 56 56 56 56 57 57 57 57 56 56 55 55 55
41 44 46 47 45 45 46 53 55 54 54 54 54 55 56 55 55 55 56 56 56 56 55 55 56 56 56 56 54 48 45 42
45 46 46 44 44 44 44 47 54 54 54 54 54 55 55 55 55 55 55 55 55 54 54 53 53 51 49 47 46 42 39 37
42 42 43 42 42 43 44 45 48 53 53 54 54 55 55 55 55 54 54 52 50 48 47 46 45 44 44 42 39 38 35 33
39 39 40 40 40 42 43 44 47 53 53 53 53 54 54 54 54 50 48 46 45 43 40 39 38 37 38 36 35 34 32 32

GFSFLT1_sfc_30mbdewp_120.txt.gz
Dewpoint
19 23 30 35 37 37 38 40 48 57 61 63 63 62 61 62 63 62 62 63 63 62 62 61 62 60 59 58 56 54 54 53
22 34 40 44 45 45 48 49 53 58 61 62 61 60 59 60 61 61 61 62 63 62 62 61 60 59 58 58 56 54 52 53
33 37 41 44 48 51 52 53 56 58 60 61 60 60 60 60 60 60 60 60 62 62 61 61 60 59 58 57 55 53 51 53
37 41 42 44 47 52 53 53 57 58 58 60 60 60 60 59 59 60 60 60 60 61 61 61 59 58 57 56 55 54 52 53
39 39 41 43 50 55 54 55 57 59 59 59 59 59 58 58 59 61 61 61 61 61 60 60 59 58 57 56 55 54 53 52
37 37 40 42 49 55 56 56 58 58 60 60 59 58 57 58 59 60 60 60 60 60 60 59 59 58 57 56 55 55 54 53
36 37 40 42 46 53 57 57 58 59 60 60 59 58 57 58 60 59 59 59 58 59 58 57 57 57 56 56 55 55 54 54
37 39 41 44 47 48 53 56 56 58 59 59 59 58 57 57 59 58 58 58 57 57 57 56 55 55 56 56 55 54 54 54
37 40 44 46 49 51 50 53 55 57 58 58 59 58 57 58 58 58 58 59 59 58 57 55 55 54 55 54 54 54 55 55
36 37 43 45 47 51 53 52 55 56 57 58 58 58 58 57 58 59 59 59 59 59 58 57 56 54 54 54 53 53 54 55
35 37 40 40 44 47 51 55 54 55 56 58 59 58 57 57 58 59 59 59 60 60 59 58 57 56 54 54 53 52 53 54
35 38 38 39 43 45 48 53 55 55 56 57 58 57 57 57 57 57 58 58 58 59 59 59 58 57 56 54 54 54 52 53
35 37 39 40 43 45 47 48 55 56 56 57 58 57 56 56 56 56 56 55 57 57 58 58 59 57 56 55 54 54 53 52
32 36 39 42 44 45 46 47 48 56 56 57 57 57 55 55 54 55 57 57 57 58 58 58 58 58 57 56 55 54 53 52
31 38 41 42 43 45 45 46 47 55 56 56 57 56 53 53 55 56 56 56 56 57 58 58 57 58 58 57 56 55 54 53
35 40 43 44 44 44 44 45 46 50 55 56 55 54 55 55 56 56 56 56 56 56 57 57 56 57 57 57 56 55 54 49
41 42 42 42 42 42 43 44 45 46 55 55 54 54 55 55 55 55 56 56 56 56 55 53 51 48 50 50 48 44 40 38
41 41 41 41 42 41 42 43 45 46 51 55 54 54 54 55 55 55 55 54 52 49 47 45 42 40 41 40 39 37 36 34
39 39 39 39 40 41 40 42 44 46 48 55 54 53 53 54 54 54 51 48 46 43 40 39 37 36 36 35 34 33 32 31

GFSFLT1_sfc_30mbdewp_123.txt.gz
Dewpoint
17 19 22 31 35 38 39 39 41 46 55 61 62 65 65 65 65 63 65 66 66 65 64 63 63 62 61 61 59 58 53 53
15 21 32 37 40 44 43 44 47 45 49 56 60 63 64 63 64 64 65 65 65 64 64 63 62 61 59 60 59 57 53 54
19 30 36 40 43 45 49 49 49 50 50 55 59 63 61 61 62 63 62 63 64 63 63 62 62 61 59 59 58 56 54 55
29 34 37 42 45 51 52 50 51 53 54 57 61 61 60 60 60 60 61 61 62 62 62 62 61 60 59 59 58 57 53 53
33 33 35 40 45 53 54 53 53 55 57 59 61 59 59 59 59 60 60 60 60 60 61 62 61 60 59 59 59 57 55 52
32 33 35 38 45 48 54 56 55 57 58 58 59 60 59 60 60 60 60 60 60 61 62 62 60 60 59 59 59 57 55 54
33 35 37 38 45 49 49 54 55 58 59 60 60 60 59 59 58 59 59 61 61 61 61 61 60 59 59 58 59 57 56 55
34 35 38 40 44 48 50 49 54 57 59 60 61 61 60 58 58 58 60 59 59 59 59 59 59 59 58 58 58 57 55 54
34 34 37 39 42 45 51 50 50 55 57 58 60 61 60 58 58 58 59 59 59 59 58 57 57 57 58 58 58 57 56 56
31 33 36 38 37 41 49 53 51 55 56 57 58 60 60 58 57 59 58 60 59 58 58 56 56 56 57 57 57 57 58 57
27 32 34 35 38 42 46 50 53 54 55 57 58 59 60 58 58 59 59 59 60 59 58 56 55 55 55 56 56 57 57 57
21 30 34 36 39 42 45 48 51 55 55 56 57 58 60 59 58 59 59 60 59 60 58 57 55 54 55 55 55 56 56 56
12 28 32 37 40 43 44 46 48 51 56 56 57 57 60 58 57 57 58 58 59 60 59 58 56 55 54 54 54 55 55 55
8 22 29 35 39 42 44 45 47 49 53 56 56 57 59 58 57 57 58 57 57 58 58 58 58 57 55 55 54 54 54 54
11 17 29 35 41 44 44 45 47 48 49 56 56 57 58 57 56 56 57 56 56 56 57 57 58 58 57 56 56 56 55 54
20 27 36 41 42 42 43 44 45 47 47 50 56 57 58 56 56 56 57 56 56 57 57 57 58 58 58 57 56 56 55 55
27 36 38 41 41 42 42 43 43 46 46 48 54 57 56 55 56 56 56 56 56 56 56 55 52 50 50 55 56 55 52 44
36 38 39 40 40 40 41 42 43 44 46 47 49 56 56 56 56 56 56 56 54 50 48 46 43 41 42 43 42 39 37 36
37 39 39 38 39 39 39 40 42 42 43 44 48 55 56 55 55 55 54 51 47 44 41 39 38 36 36 36 35 34 32 32

GFSFLT1_sfc_30mbdewp_126.txt.gz
Dewpoint
24 24 24 32 37 39 39 41 43 52 62 65 67 66 65 65 65 67 67 67 67 66 65 64 64 62 61 61 60 61 60 59
15 21 25 34 39 41 44 46 46 47 51 59 62 65 65 65 64 65 67 65 66 66 65 64 63 62 61 61 60 59 59 59
14 22 34 38 41 45 45 50 50 52 49 49 57 61 66 65 65 64 65 66 66 65 64 63 63 62 61 60 59 58 57 58
20 33 36 42 43 51 52 53 53 53 52 51 58 63 63 62 63 63 64 65 65 65 64 63 63 62 60 60 59 57 55 57
31 34 35 40 47 49 53 56 56 54 55 55 61 61 60 60 61 61 62 63 64 64 63 62 62 61 60 59 59 58 55 55
32 32 36 37 48 49 51 54 56 57 58 58 61 61 60 60 60 60 61 61 61 62 62 62 61 61 60 59 59 58 56 54
32 35 36 40 48 50 53 52 54 57 59 59 60 61 60 59 59 60 60 60 61 61 61 62 61 61 60 59 59 59 57 56
34 34 37 39 43 47 48 51 51 56 58 59 60 60 60 59 60 60 60 60 60 60 61 62 61 60 60 60 59 59 58 56
34 34 35 38 39 42 48 49 52 55 57 57 59 61 61 60 61 60 59 60 60 60 60 61 61 60 60 59 59 59 58 56
33 32 34 36 37 43 47 48 50 53 55 56 58 60 61 61 61 60 60 60 59 59 58 58 58 58 59 58 58 58 58 57
27 29 32 35 38 43 46 47 49 50 54 56 57 58 60 61 61 60 58 60 60 59 58 57 57 57 57 58 57 58 57 56
14 25 31 34 40 42 44 47 47 49 51 55 57 57 59 60 60 59 59 61 60 59 58 56 56 56 56 56 57 57 57 55
11 10 26 31 37 40 44 46 47 48 49 51 55 58 58 59 60 60 60 60 60 59 58 57 56 55 55 55 56 56 57 56
12 11 11 27 34 44 44 45 46 47 48 50 53 56 57 58 60 59 60 60 59 60 59 57 56 55 55 55 55 56 56 57
11 17 17 41 44 43 43 45 45 46 47 48 50 55 57 57 60 59 58 59 58 59 59 59 57 56 55 55 55 55 55 56
12 19 38 40 41 42 43 43 45 45 45 46 47 50 56 58 59 59 58 58 57 57 57 58 59 57 55 55 54 54 54 55
19 37 39 39 40 40 41 42 42 43 44 45 47 48 53 57 58 58 57 57 56 57 56 57 56 54 52 55 55 54 54 54
36 38 38 39 39 39 39 39 40 42 42 43 44 44 49 57 57 57 56 56 56 53 51 49 46 45 47 50 50 47 46 44
38 37 37 37 37 37 37 38 39 39 40 41 40 40 44 53 57 56 55 52 50 47 44 42 39 37 38 39 38 36 34 33